Time,TemperatureF,DewpointF,PressureIn,WindDirection,WindDirectionDegrees,WindSpeedMPH,WindSpeedGustMPH,Humidity,HourlyPrecipIn,Conditions,Clouds,dailyrainin,SoftwareType,DateUTC
2013-11-26 00:00:00,28.8,26.2,29.31,West,264,4.0,13.0,90,0.00,,,0.00,WUHU216DAVISVP2,2013-11-26 05:00:00,
2013-11-26 00:01:00,28.8,26.2,29.31,WNW,290,7.0,13.0,90,0.00,,,0.00,WUHU216DAVISVP2,2013-11-26 05:01:00,
2013-11-26 00:02:00,28.8,26.2,29.31,West,268,6.0,13.0,90,0.00,,,0.00,WUHU216DAVISVP2,2013-11-26 05:02:00,
2013-11-26 00:06:00,28.8,26.5,29.31,West,280,2.0,13.0,91,0.00,,,0.00,WUHU216DAVISVP2,2013-11-26 05:06:00,
2013-11-26 00:07:00,28.8,26.2,29.31,WNW,287,7.0,13.0,90,0.00,,,0.00,WUHU216DAVISVP2,2013-11-26 05:07:00,
2013-11-26 00:11:00,28.8,26.2,29.31,West,270,9.0,13.0,90,0.00,,,0.00,WUHU216DAVISVP2,2013-11-26 05:11:00,
2013-11-26 00:12:00,28.8,26.2,29.31,WSW,258,5.0,13.0,90,0.00,,,0.00,WUHU216DAVISVP2,2013-11-26 05:12:00,
2013-11-26 00:13:00,28.8,26.2,29.31,West,267,6.0,11.0,90,0.00,,,0.00,WUHU216DAVISVP2,2013-11-26 05:13:00,
2013-11-26 00:16:00,28.9,26.3,29.31,West,267,7.0,12.0,90,0.00,,,0.00,WUHU216DAVISVP2,2013-11-26 05:16:00,
2013-11-26 00:17:00,28.9,26.3,29.31,WSW,254,4.0,12.0,90,0.00,,,0.00,WUHU216DAVISVP2,2013-11-26 05:17:00,
2013-11-26 00:18:00,28.9,26.3,29.31,WSW,253,3.0,12.0,90,0.00,,,0.00,WUHU216DAVISVP2,2013-11-26 05:18:00,
2013-11-26 00:21:00,29.0,26.4,29.31,West,271,4.0,12.0,90,0.00,,,0.00,WUHU216DAVISVP2,2013-11-26 05:21:00,
2013-11-26 00:22:00,29.0,26.4,29.32,WSW,251,7.0,12.0,90,0.00,,,0.00,WUHU216DAVISVP2,2013-11-26 05:22:00,
2013-11-26 00:23:00,29.0,26.4,29.32,West,268,7.0,12.0,90,0.00,,,0.00,WUHU216DAVISVP2,2013-11-26 05:23:00,
2013-11-26 00:26:00,29.0,26.4,29.32,WSW,256,0.0,12.0,90,0.00,,,0.00,WUHU216DAVISVP2,2013-11-26 05:26:00,
2013-11-26 00:27:00,29.0,26.4,29.32,SW,226,4.0,12.0,90,0.00,,,0.00,WUHU216DAVISVP2,2013-11-26 05:27:00,
2013-11-26 00:28:00,29.0,26.4,29.32,SW,233,6.0,12.0,90,0.00,,,0.00,WUHU216DAVISVP2,2013-11-26 05:28:00,
2013-11-26 00:31:00,29.1,26.5,29.32,WSW,242,7.0,12.0,90,0.00,,,0.00,WUHU216DAVISVP2,2013-11-26 05:31:00,
2013-11-26 00:32:00,29.0,26.4,29.32,WSW,247,6.0,12.0,90,0.00,,,0.00,WUHU216DAVISVP2,2013-11-26 05:32:00,
2013-11-26 00:33:00,29.0,26.1,29.32,WSW,258,9.0,12.0,89,0.00,,,0.00,WUHU216DAVISVP2,2013-11-26 05:33:00,
2013-11-26 00:34:00,29.1,26.2,29.32,WSW,256,1.0,12.0,89,0.00,,,0.00,WUHU216DAVISVP2,2013-11-26 05:34:00,
2013-11-26 00:36:00,29.0,26.1,29.32,WSW,251,5.0,12.0,89,0.00,,,0.00,WUHU216DAVISVP2,2013-11-26 05:36:00,
2013-11-26 00:37:00,29.0,26.1,29.32,West,262,5.0,12.0,89,0.00,,,0.00,WUHU216DAVISVP2,2013-11-26 05:37:00,
2013-11-26 00:38:00,29.0,26.1,29.32,WSW,251,6.0,12.0,89,0.00,,,0.00,WUHU216DAVISVP2,2013-11-26 05:38:00,
2013-11-26 00:40:00,29.0,26.1,29.32,West,280,7.0,13.0,89,0.00,,,0.00,WUHU216DAVISVP2,2013-11-26 05:40:00,
2013-11-26 00:41:00,29.0,26.1,29.31,WSW,254,5.0,13.0,89,0.00,,,0.00,WUHU216DAVISVP2,2013-11-26 05:41:00,
2013-11-26 00:42:00,29.0,26.1,29.32,West,261,4.0,13.0,89,0.00,,,0.00,WUHU216DAVISVP2,2013-11-26 05:42:00,
2013-11-26 00:43:00,29.0,26.1,29.32,WSW,238,9.0,13.0,89,0.00,,,0.00,WUHU216DAVISVP2,2013-11-26 05:43:00,
2013-11-26 00:44:00,28.9,26.0,29.32,WSW,249,7.0,13.0,89,0.00,,,0.00,WUHU216DAVISVP2,2013-11-26 05:44:00,
2013-11-26 00:45:00,28.9,26.0,29.32,WSW,250,8.0,13.0,89,0.00,,,0.00,WUHU216DAVISVP2,2013-11-26 05:45:00,
2013-11-26 00:46:00,28.9,26.0,29.32,WSW,254,6.0,13.0,89,0.00,,,0.00,WUHU216DAVISVP2,2013-11-26 05:46:00,
2013-11-26 00:47:00,28.9,26.0,29.32,WSW,247,6.0,13.0,89,0.00,,,0.00,WUHU216DAVISVP2,2013-11-26 05:47:00,
2013-11-26 00:48:00,28.9,26.0,29.32,WSW,252,6.0,13.0,89,0.00,,,0.00,WUHU216DAVISVP2,2013-11-26 05:48:00,
2013-11-26 00:49:00,28.9,26.0,29.32,WSW,247,8.0,13.0,89,0.00,,,0.00,WUHU216DAVISVP2,2013-11-26 05:49:00,
2013-11-26 00:50:00,28.9,26.0,29.32,WSW,253,5.0,13.0,89,0.00,,,0.00,WUHU216DAVISVP2,2013-11-26 05:50:00,
2013-11-26 00:51:00,28.9,26.0,29.32,WSW,245,7.0,13.0,89,0.00,,,0.00,WUHU216DAVISVP2,2013-11-26 05:51:00,
2013-11-26 00:52:00,28.9,26.0,29.32,West,268,8.0,13.0,89,0.00,,,0.00,WUHU216DAVISVP2,2013-11-26 05:52:00,
2013-11-26 00:53:00,28.9,26.0,29.32,WSW,243,10.0,13.0,89,0.00,,,0.00,WUHU216DAVISVP2,2013-11-26 05:53:00,
2013-11-26 00:55:00,28.9,26.0,29.32,West,260,7.0,13.0,89,0.00,,,0.00,WUHU216DAVISVP2,2013-11-26 05:55:00,
2013-11-26 00:57:00,28.9,26.0,29.32,WSW,257,9.0,13.0,89,0.00,,,0.00,WUHU216DAVISVP2,2013-11-26 05:57:00,
2013-11-26 00:58:00,28.9,26.0,29.32,West,263,7.0,13.0,89,0.00,,,0.00,WUHU216DAVISVP2,2013-11-26 05:58:00,
2013-11-26 00:59:00,29.0,26.1,29.32,West,265,5.0,13.0,89,0.00,,,0.00,WUHU216DAVISVP2,2013-11-26 05:59:00,
2013-11-26 01:00:00,29.0,26.1,29.32,West,267,6.0,13.0,89,0.00,,,0.00,WUHU216DAVISVP2,2013-11-26 06:00:00,
2013-11-26 01:01:00,29.0,26.1,29.32,WSW,243,9.0,13.0,89,0.00,,,0.00,WUHU216DAVISVP2,2013-11-26 06:01:00,
2013-11-26 01:02:00,29.0,26.1,29.32,SW,235,7.0,13.0,89,0.00,,,0.00,WUHU216DAVISVP2,2013-11-26 06:02:00,
2013-11-26 01:03:00,29.0,26.1,29.32,WSW,242,5.0,12.0,89,0.00,,,0.00,WUHU216DAVISVP2,2013-11-26 06:03:00,
2013-11-26 01:04:00,29.0,26.1,29.32,WSW,242,3.0,12.0,89,0.00,,,0.00,WUHU216DAVISVP2,2013-11-26 06:04:00,
2013-11-26 01:06:00,29.0,26.1,29.32,WSW,248,9.0,12.0,89,0.00,,,0.00,WUHU216DAVISVP2,2013-11-26 06:06:00,
2013-11-26 01:08:00,29.0,26.1,29.31,West,260,7.0,13.0,89,0.00,,,0.00,WUHU216DAVISVP2,2013-11-26 06:08:00,
2013-11-26 01:09:00,29.0,26.1,29.31,West,270,7.0,13.0,89,0.00,,,0.00,WUHU216DAVISVP2,2013-11-26 06:09:00,
2013-11-26 01:11:00,29.0,26.1,29.32,West,266,9.0,15.0,89,0.00,,,0.00,WUHU216DAVISVP2,2013-11-26 06:11:00,
2013-11-26 01:12:00,29.0,26.1,29.32,WSW,253,7.0,15.0,89,0.00,,,0.00,WUHU216DAVISVP2,2013-11-26 06:12:00,
2013-11-26 01:13:00,29.0,26.1,29.32,West,260,6.0,15.0,89,0.00,,,0.00,WUHU216DAVISVP2,2013-11-26 06:13:00,
2013-11-26 01:14:00,29.1,26.2,29.31,WSW,258,6.0,15.0,89,0.00,,,0.00,WUHU216DAVISVP2,2013-11-26 06:14:00,
2013-11-26 01:15:00,29.0,26.1,29.31,West,276,7.0,15.0,89,0.00,,,0.00,WUHU216DAVISVP2,2013-11-26 06:15:00,
2013-11-26 01:17:00,29.0,26.1,29.31,West,274,7.0,15.0,89,0.00,,,0.00,WUHU216DAVISVP2,2013-11-26 06:17:00,
2013-11-26 01:18:00,29.0,26.1,29.31,WSW,247,9.0,15.0,89,0.00,,,0.00,WUHU216DAVISVP2,2013-11-26 06:18:00,
2013-11-26 01:20:00,29.1,26.3,29.31,West,264,7.0,15.0,89,0.00,,,0.00,WUHU216DAVISVP2,2013-11-26 06:20:00,
2013-11-26 01:22:00,29.0,26.2,29.31,WSW,249,8.0,15.0,89,0.00,,,0.00,WUHU216DAVISVP2,2013-11-26 06:22:00,
2013-11-26 01:23:00,29.0,26.2,29.31,West,263,9.0,15.0,89,0.00,,,0.00,WUHU216DAVISVP2,2013-11-26 06:23:00,
2013-11-26 01:25:00,29.1,26.3,29.31,WSW,254,5.0,15.0,89,0.00,,,0.00,WUHU216DAVISVP2,2013-11-26 06:25:00,
2013-11-26 01:27:00,29.1,26.3,29.31,WSW,256,7.0,15.0,89,0.00,,,0.00,WUHU216DAVISVP2,2013-11-26 06:27:00,
2013-11-26 01:28:00,29.1,26.3,29.31,WSW,258,8.0,15.0,89,0.00,,,0.00,WUHU216DAVISVP2,2013-11-26 06:28:00,
2013-11-26 01:30:00,29.1,26.3,29.31,WSW,258,9.0,18.0,89,0.00,,,0.00,WUHU216DAVISVP2,2013-11-26 06:30:00,
2013-11-26 01:32:00,29.2,26.1,29.31,SW,220,1.0,18.0,88,0.00,,,0.00,WUHU216DAVISVP2,2013-11-26 06:32:00,
2013-11-26 01:33:00,29.2,26.1,29.31,WSW,258,4.0,18.0,88,0.00,,,0.00,WUHU216DAVISVP2,2013-11-26 06:33:00,
2013-11-26 01:34:00,29.2,26.1,29.31,WSW,257,3.0,18.0,88,0.00,,,0.00,WUHU216DAVISVP2,2013-11-26 06:34:00,
2013-11-26 01:35:00,29.2,26.1,29.31,WSW,251,9.0,18.0,88,0.00,,,0.00,WUHU216DAVISVP2,2013-11-26 06:35:00,
2013-11-26 01:37:00,29.2,26.1,29.31,West,259,5.0,18.0,88,0.00,,,0.00,WUHU216DAVISVP2,2013-11-26 06:37:00,
2013-11-26 01:38:00,29.2,26.1,29.31,WSW,253,6.0,18.0,88,0.00,,,0.00,WUHU216DAVISVP2,2013-11-26 06:38:00,
2013-11-26 01:39:00,29.2,26.1,29.31,WSW,249,6.0,18.0,88,0.00,,,0.00,WUHU216DAVISVP2,2013-11-26 06:39:00,
2013-11-26 01:40:00,29.2,26.1,29.30,WSW,250,5.0,18.0,88,0.00,,,0.00,WUHU216DAVISVP2,2013-11-26 06:40:00,
2013-11-26 01:41:00,29.2,26.1,29.30,WSW,257,7.0,18.0,88,0.00,,,0.00,WUHU216DAVISVP2,2013-11-26 06:41:00,
2013-11-26 01:42:00,29.2,26.1,29.31,WSW,258,7.0,18.0,88,0.00,,,0.00,WUHU216DAVISVP2,2013-11-26 06:42:00,
2013-11-26 01:43:00,29.2,26.1,29.31,West,264,8.0,18.0,88,0.00,,,0.00,WUHU216DAVISVP2,2013-11-26 06:43:00,
2013-11-26 01:45:00,29.2,26.0,29.31,WSW,242,3.0,18.0,88,0.00,,,0.00,WUHU216DAVISVP2,2013-11-26 06:45:00,
2013-11-26 01:46:00,29.2,26.0,29.31,WSW,242,2.0,18.0,88,0.00,,,0.00,WUHU216DAVISVP2,2013-11-26 06:46:00,
2013-11-26 01:47:00,29.3,26.1,29.30,WSW,251,9.0,18.0,88,0.00,,,0.00,WUHU216DAVISVP2,2013-11-26 06:47:00,
2013-11-26 01:48:00,29.3,26.1,29.30,WSW,247,8.0,18.0,88,0.00,,,0.00,WUHU216DAVISVP2,2013-11-26 06:48:00,
2013-11-26 01:50:00,29.3,26.1,29.31,West,274,8.0,13.0,88,0.00,,,0.00,WUHU216DAVISVP2,2013-11-26 06:50:00,
2013-11-26 01:51:00,29.3,26.1,29.31,West,269,6.0,13.0,88,0.00,,,0.00,WUHU216DAVISVP2,2013-11-26 06:51:00,
2013-11-26 01:53:00,29.3,26.1,29.31,West,259,5.0,13.0,88,0.00,,,0.00,WUHU216DAVISVP2,2013-11-26 06:53:00,
2013-11-26 01:54:00,29.3,26.1,29.31,WSW,237,0.0,13.0,88,0.00,,,0.00,WUHU216DAVISVP2,2013-11-26 06:54:00,
2013-11-26 01:55:00,29.3,26.1,29.30,SW,232,5.0,13.0,88,0.00,,,0.00,WUHU216DAVISVP2,2013-11-26 06:55:00,
2013-11-26 01:56:00,29.3,26.1,29.31,WSW,240,4.0,13.0,88,0.00,,,0.00,WUHU216DAVISVP2,2013-11-26 06:56:00,
2013-11-26 01:58:00,29.4,26.2,29.31,WSW,240,1.0,13.0,88,0.00,,,0.00,WUHU216DAVISVP2,2013-11-26 06:58:00,
2013-11-26 01:59:00,29.4,26.2,29.30,WSW,239,2.0,13.0,88,0.00,,,0.00,WUHU216DAVISVP2,2013-11-26 06:59:00,
2013-11-26 02:00:00,29.4,26.2,29.30,WSW,258,9.0,11.0,88,0.00,,,0.00,WUHU216DAVISVP2,2013-11-26 07:00:00,
2013-11-26 02:01:00,29.4,26.2,29.30,WSW,254,5.0,11.0,88,0.00,,,0.00,WUHU216DAVISVP2,2013-11-26 07:01:00,
2013-11-26 02:03:00,29.4,26.2,29.30,SW,225,4.0,11.0,88,0.00,,,0.00,WUHU216DAVISVP2,2013-11-26 07:03:00,
2013-11-26 02:04:00,29.4,26.2,29.30,WSW,250,8.0,11.0,88,0.00,,,0.00,WUHU216DAVISVP2,2013-11-26 07:04:00,
2013-11-26 02:05:00,29.4,26.2,29.30,WSW,249,8.0,11.0,88,0.00,,,0.00,WUHU216DAVISVP2,2013-11-26 07:05:00,
2013-11-26 02:06:00,29.4,26.2,29.30,West,259,9.0,15.0,88,0.00,,,0.00,WUHU216DAVISVP2,2013-11-26 07:06:00,
2013-11-26 02:08:00,29.4,26.2,29.31,SW,226,2.0,15.0,88,0.00,,,0.00,WUHU216DAVISVP2,2013-11-26 07:08:00,
2013-11-26 02:09:00,29.4,26.2,29.31,WSW,247,8.0,15.0,88,0.00,,,0.00,WUHU216DAVISVP2,2013-11-26 07:09:00,
2013-11-26 02:10:00,29.4,26.2,29.31,WSW,242,8.0,15.0,88,0.00,,,0.00,WUHU216DAVISVP2,2013-11-26 07:10:00,
2013-11-26 02:11:00,29.4,26.2,29.30,SW,219,2.0,15.0,88,0.00,,,0.00,WUHU216DAVISVP2,2013-11-26 07:11:00,
2013-11-26 02:13:00,29.5,26.3,29.31,WSW,249,10.0,15.0,88,0.00,,,0.00,WUHU216DAVISVP2,2013-11-26 07:13:00,
2013-11-26 02:15:00,29.5,26.3,29.31,WSW,245,9.0,15.0,88,0.00,,,0.00,WUHU216DAVISVP2,2013-11-26 07:15:00,
2013-11-26 02:16:00,29.5,26.3,29.31,WSW,237,7.0,15.0,88,0.00,,,0.00,WUHU216DAVISVP2,2013-11-26 07:16:00,
2013-11-26 02:17:00,29.5,26.3,29.31,SW,214,1.0,15.0,88,0.00,,,0.00,WUHU216DAVISVP2,2013-11-26 07:17:00,
2013-11-26 02:18:00,29.5,26.3,29.31,SW,214,1.0,15.0,88,0.00,,,0.00,WUHU216DAVISVP2,2013-11-26 07:18:00,
2013-11-26 02:20:00,29.5,26.3,29.31,WSW,249,8.0,15.0,88,0.00,,,0.00,WUHU216DAVISVP2,2013-11-26 07:20:00,
2013-11-26 02:21:00,29.5,26.3,29.31,SW,231,7.0,15.0,88,0.00,,,0.00,WUHU216DAVISVP2,2013-11-26 07:21:00,
2013-11-26 02:22:00,29.5,26.3,29.31,WSW,237,6.0,15.0,88,0.00,,,0.00,WUHU216DAVISVP2,2013-11-26 07:22:00,
2013-11-26 02:23:00,29.6,26.4,29.31,SW,234,3.0,15.0,88,0.00,,,0.00,WUHU216DAVISVP2,2013-11-26 07:23:00,
2013-11-26 02:25:00,29.6,26.4,29.30,WSW,241,1.0,15.0,88,0.00,,,0.00,WUHU216DAVISVP2,2013-11-26 07:25:00,
2013-11-26 02:27:00,29.6,26.4,29.30,West,265,5.0,15.0,88,0.00,,,0.00,WUHU216DAVISVP2,2013-11-26 07:27:00,
2013-11-26 02:28:00,29.6,26.4,29.30,SW,227,5.0,13.0,88,0.00,,,0.00,WUHU216DAVISVP2,2013-11-26 07:28:00,
2013-11-26 02:30:00,29.6,26.4,29.31,WSW,245,10.0,13.0,88,0.00,,,0.00,WUHU216DAVISVP2,2013-11-26 07:30:00,
2013-11-26 02:31:00,29.6,26.4,29.31,WSW,250,5.0,13.0,88,0.00,,,0.00,WUHU216DAVISVP2,2013-11-26 07:31:00,
2013-11-26 02:32:00,29.6,26.4,29.31,SW,233,6.0,13.0,88,0.00,,,0.00,WUHU216DAVISVP2,2013-11-26 07:32:00,
2013-11-26 02:33:00,29.7,26.5,29.30,WSW,244,9.0,13.0,88,0.00,,,0.00,WUHU216DAVISVP2,2013-11-26 07:33:00,
2013-11-26 02:35:00,29.7,26.5,29.31,WSW,247,4.0,13.0,88,0.00,,,0.00,WUHU216DAVISVP2,2013-11-26 07:35:00,
2013-11-26 02:36:00,29.7,26.3,29.30,WSW,240,4.0,13.0,87,0.00,,,0.00,WUHU216DAVISVP2,2013-11-26 07:36:00,
2013-11-26 02:37:00,29.7,26.3,29.30,WSW,238,15.0,15.0,87,0.00,,,0.00,WUHU216DAVISVP2,2013-11-26 07:37:00,
2013-11-26 02:39:00,29.8,26.4,29.30,WSW,255,8.0,15.0,87,0.00,,,0.00,WUHU216DAVISVP2,2013-11-26 07:39:00,
2013-11-26 02:40:00,29.8,26.4,29.30,West,276,8.0,15.0,87,0.00,,,0.00,WUHU216DAVISVP2,2013-11-26 07:40:00,
2013-11-26 02:41:00,29.8,26.4,29.30,WSW,237,8.0,15.0,87,0.00,,,0.00,WUHU216DAVISVP2,2013-11-26 07:41:00,
2013-11-26 02:42:00,29.8,26.4,29.30,West,269,8.0,15.0,87,0.00,,,0.00,WUHU216DAVISVP2,2013-11-26 07:42:00,
2013-11-26 02:44:00,29.8,26.4,29.29,WSW,247,7.0,15.0,87,0.00,,,0.00,WUHU216DAVISVP2,2013-11-26 07:44:00,
2013-11-26 02:45:00,29.9,26.5,29.29,WSW,243,12.0,16.0,87,0.00,,,0.00,WUHU216DAVISVP2,2013-11-26 07:45:00,
2013-11-26 02:47:00,29.8,26.4,29.29,WSW,243,10.0,16.0,87,0.00,,,0.00,WUHU216DAVISVP2,2013-11-26 07:47:00,
2013-11-26 02:48:00,29.8,26.1,29.29,WSW,251,9.0,16.0,86,0.00,,,0.00,WUHU216DAVISVP2,2013-11-26 07:48:00,
2013-11-26 02:49:00,29.9,26.2,29.29,West,262,5.0,16.0,86,0.00,,,0.00,WUHU216DAVISVP2,2013-11-26 07:49:00,
2013-11-26 02:51:00,29.9,26.2,29.29,WSW,255,10.0,16.0,86,0.00,,,0.00,WUHU216DAVISVP2,2013-11-26 07:51:00,
2013-11-26 02:53:00,29.9,26.2,29.29,WSW,238,7.0,16.0,86,0.00,,,0.00,WUHU216DAVISVP2,2013-11-26 07:53:00,
2013-11-26 02:54:00,29.9,26.2,29.29,WSW,258,6.0,16.0,86,0.00,,,0.00,WUHU216DAVISVP2,2013-11-26 07:54:00,
2013-11-26 02:56:00,29.9,26.2,29.29,WSW,249,7.0,16.0,86,0.00,,,0.00,WUHU216DAVISVP2,2013-11-26 07:56:00,
2013-11-26 02:58:00,30.0,26.3,29.29,SW,219,0.0,16.0,86,0.00,,,0.00,WUHU216DAVISVP2,2013-11-26 07:58:00,
2013-11-26 03:00:00,30.0,26.3,29.29,SW,221,6.0,16.0,86,0.00,,,0.00,WUHU216DAVISVP2,2013-11-26 08:00:00,
2013-11-26 03:01:00,30.0,26.3,29.29,SW,226,1.0,16.0,86,0.00,,,0.00,WUHU216DAVISVP2,2013-11-26 08:01:00,
2013-11-26 03:03:00,30.1,26.4,29.29,SW,226,4.0,16.0,86,0.00,,,0.00,WUHU216DAVISVP2,2013-11-26 08:03:00,
2013-11-26 03:04:00,30.1,26.4,29.29,SW,222,0.0,16.0,86,0.00,,,0.00,WUHU216DAVISVP2,2013-11-26 08:04:00,
2013-11-26 03:05:00,30.1,26.4,29.30,WSW,257,6.0,14.0,86,0.00,,,0.00,WUHU216DAVISVP2,2013-11-26 08:05:00,
2013-11-26 03:06:00,30.1,26.4,29.29,SW,227,3.0,14.0,86,0.00,,,0.00,WUHU216DAVISVP2,2013-11-26 08:06:00,
2013-11-26 03:08:00,30.1,26.4,29.29,WSW,254,6.0,14.0,86,0.00,,,0.00,WUHU216DAVISVP2,2013-11-26 08:08:00,
2013-11-26 03:09:00,30.1,26.4,29.29,WSW,241,12.0,14.0,86,0.00,,,0.00,WUHU216DAVISVP2,2013-11-26 08:09:00,
2013-11-26 03:10:00,30.1,26.4,29.30,WSW,237,8.0,14.0,86,0.00,,,0.00,WUHU216DAVISVP2,2013-11-26 08:10:00,
2013-11-26 03:11:00,30.1,26.4,29.29,WSW,247,11.0,14.0,86,0.00,,,0.00,WUHU216DAVISVP2,2013-11-26 08:11:00,
2013-11-26 03:13:00,30.2,26.2,29.29,SW,224,4.0,13.0,85,0.00,,,0.00,WUHU216DAVISVP2,2013-11-26 08:13:00,
2013-11-26 03:14:00,30.2,26.2,29.29,WSW,256,5.0,13.0,85,0.00,,,0.00,WUHU216DAVISVP2,2013-11-26 08:14:00,
2013-11-26 03:15:00,30.2,26.2,29.29,WSW,253,6.0,13.0,85,0.00,,,0.00,WUHU216DAVISVP2,2013-11-26 08:15:00,
2013-11-26 03:16:00,30.2,26.2,29.29,WSW,253,2.0,13.0,85,0.00,,,0.00,WUHU216DAVISVP2,2013-11-26 08:16:00,
2013-11-26 03:18:00,30.2,26.2,29.29,WSW,247,7.0,13.0,85,0.00,,,0.00,WUHU216DAVISVP2,2013-11-26 08:18:00,
2013-11-26 03:19:00,30.2,26.2,29.29,WSW,253,5.0,13.0,85,0.00,,,0.00,WUHU216DAVISVP2,2013-11-26 08:19:00,
2013-11-26 03:20:00,30.2,26.2,29.29,WSW,253,0.0,13.0,85,0.00,,,0.00,WUHU216DAVISVP2,2013-11-26 08:20:00,
2013-11-26 03:21:00,30.2,26.2,29.28,WSW,253,6.0,13.0,85,0.00,,,0.00,WUHU216DAVISVP2,2013-11-26 08:21:00,
2013-11-26 03:23:00,30.3,26.3,29.28,SW,226,2.0,13.0,85,0.00,,,0.00,WUHU216DAVISVP2,2013-11-26 08:23:00,
2013-11-26 03:24:00,30.3,26.3,29.28,WSW,243,5.0,13.0,85,0.00,,,0.00,WUHU216DAVISVP2,2013-11-26 08:24:00,
2013-11-26 03:25:00,30.3,26.3,29.28,SW,223,5.0,13.0,85,0.00,,,0.00,WUHU216DAVISVP2,2013-11-26 08:25:00,
2013-11-26 03:26:00,30.3,26.3,29.28,SW,220,0.0,13.0,85,0.00,,,0.00,WUHU216DAVISVP2,2013-11-26 08:26:00,
2013-11-26 03:29:00,30.3,26.3,29.28,WSW,242,5.0,13.0,85,0.00,,,0.00,WUHU216DAVISVP2,2013-11-26 08:29:00,
2013-11-26 03:30:00,30.3,26.3,29.28,West,264,6.0,13.0,85,0.00,,,0.00,WUHU216DAVISVP2,2013-11-26 08:30:00,
2013-11-26 03:31:00,30.3,26.3,29.28,WSW,249,6.0,13.0,85,0.00,,,0.00,WUHU216DAVISVP2,2013-11-26 08:31:00,
2013-11-26 03:32:00,30.3,26.3,29.28,WSW,237,1.0,13.0,85,0.00,,,0.00,WUHU216DAVISVP2,2013-11-26 08:32:00,
2013-11-26 03:34:00,30.3,26.0,29.29,WSW,244,7.0,13.0,84,0.00,,,0.00,WUHU216DAVISVP2,2013-11-26 08:34:00,
2013-11-26 03:35:00,30.3,26.0,29.29,WSW,243,6.0,13.0,84,0.00,,,0.00,WUHU216DAVISVP2,2013-11-26 08:35:00,
2013-11-26 03:36:00,30.4,26.1,29.28,WSW,243,5.0,11.0,84,0.00,,,0.00,WUHU216DAVISVP2,2013-11-26 08:36:00,
2013-11-26 03:37:00,30.4,26.1,29.28,WSW,243,5.0,11.0,84,0.00,,,0.00,WUHU216DAVISVP2,2013-11-26 08:37:00,
2013-11-26 03:39:00,30.4,26.1,29.29,West,260,0.0,11.0,84,0.00,,,0.00,WUHU216DAVISVP2,2013-11-26 08:39:00,
2013-11-26 03:40:00,30.4,26.1,29.29,West,260,0.0,11.0,84,0.00,,,0.00,WUHU216DAVISVP2,2013-11-26 08:40:00,
2013-11-26 03:42:00,30.4,26.1,29.29,WSW,238,6.0,11.0,84,0.00,,,0.00,WUHU216DAVISVP2,2013-11-26 08:42:00,
2013-11-26 03:45:00,30.4,26.1,29.29,WSW,255,6.0,11.0,84,0.00,,,0.00,WUHU216DAVISVP2,2013-11-26 08:45:00,
2013-11-26 03:47:00,30.5,25.9,29.29,West,265,7.0,11.0,83,0.00,,,0.00,WUHU216DAVISVP2,2013-11-26 08:47:00,
2013-11-26 03:49:00,30.5,25.9,29.29,SW,230,0.0,11.0,83,0.00,,,0.00,WUHU216DAVISVP2,2013-11-26 08:49:00,
2013-11-26 03:50:00,30.5,25.9,29.29,WSW,249,2.0,11.0,83,0.00,,,0.00,WUHU216DAVISVP2,2013-11-26 08:50:00,
2013-11-26 03:51:00,30.5,25.9,29.29,SW,226,5.0,11.0,83,0.00,,,0.00,WUHU216DAVISVP2,2013-11-26 08:51:00,
2013-11-26 03:52:00,30.5,25.9,29.29,WSW,245,8.0,11.0,83,0.00,,,0.00,WUHU216DAVISVP2,2013-11-26 08:52:00,
2013-11-26 03:54:00,30.5,25.9,29.29,SW,217,5.0,11.0,83,0.00,,,0.00,WUHU216DAVISVP2,2013-11-26 08:54:00,
2013-11-26 03:55:00,30.5,25.9,29.28,West,276,3.0,11.0,83,0.00,,,0.00,WUHU216DAVISVP2,2013-11-26 08:55:00,
2013-11-26 03:56:00,30.5,25.9,29.28,West,276,0.0,11.0,83,0.00,,,0.00,WUHU216DAVISVP2,2013-11-26 08:56:00,
2013-11-26 03:57:00,30.5,25.9,29.29,WSW,241,4.0,11.0,83,0.00,,,0.00,WUHU216DAVISVP2,2013-11-26 08:57:00,
2013-11-26 03:59:00,30.6,26.0,29.29,WSW,251,1.0,11.0,83,0.00,,,0.00,WUHU216DAVISVP2,2013-11-26 08:59:00,
2013-11-26 04:00:00,30.5,25.9,29.29,WSW,247,7.0,12.0,83,0.00,,,0.00,WUHU216DAVISVP2,2013-11-26 09:00:00,
2013-11-26 04:01:00,30.6,26.0,29.29,WSW,256,6.0,12.0,83,0.00,,,0.00,WUHU216DAVISVP2,2013-11-26 09:01:00,
2013-11-26 04:02:00,30.5,25.9,29.28,West,264,1.0,12.0,83,0.00,,,0.00,WUHU216DAVISVP2,2013-11-26 09:02:00,
2013-11-26 04:05:00,30.6,25.8,29.28,WSW,251,4.0,12.0,82,0.00,,,0.00,WUHU216DAVISVP2,2013-11-26 09:05:00,
2013-11-26 04:06:00,30.5,25.7,29.28,WSW,251,7.0,12.0,82,0.00,,,0.00,WUHU216DAVISVP2,2013-11-26 09:06:00,
2013-11-26 04:08:00,30.6,25.8,29.28,WSW,249,9.0,12.0,82,0.00,,,0.00,WUHU216DAVISVP2,2013-11-26 09:08:00,
2013-11-26 04:10:00,30.6,25.8,29.28,West,268,5.0,12.0,82,0.00,,,0.00,WUHU216DAVISVP2,2013-11-26 09:10:00,
2013-11-26 04:11:00,30.6,25.8,29.28,West,262,5.0,12.0,82,0.00,,,0.00,WUHU216DAVISVP2,2013-11-26 09:11:00,
2013-11-26 04:12:00,30.6,25.8,29.28,WSW,246,10.0,12.0,82,0.00,,,0.00,WUHU216DAVISVP2,2013-11-26 09:12:00,
2013-11-26 04:13:00,30.6,25.8,29.28,WSW,245,4.0,12.0,82,0.00,,,0.00,WUHU216DAVISVP2,2013-11-26 09:13:00,
2013-11-26 04:15:00,30.6,25.8,29.28,West,267,0.0,12.0,82,0.00,,,0.00,WUHU216DAVISVP2,2013-11-26 09:15:00,
2013-11-26 04:16:00,30.6,25.8,29.28,West,267,1.0,12.0,82,0.00,,,0.00,WUHU216DAVISVP2,2013-11-26 09:16:00,
2013-11-26 04:17:00,30.6,25.8,29.28,West,267,6.0,12.0,82,0.00,,,0.00,WUHU216DAVISVP2,2013-11-26 09:17:00,
2013-11-26 04:18:00,30.6,25.8,29.28,West,267,4.0,12.0,82,0.00,,,0.00,WUHU216DAVISVP2,2013-11-26 09:18:00,
2013-11-26 04:20:00,30.5,25.7,29.28,West,262,8.0,12.0,82,0.00,,,0.00,WUHU216DAVISVP2,2013-11-26 09:20:00,
2013-11-26 04:21:00,30.5,25.7,29.28,WSW,256,8.0,12.0,82,0.00,,,0.00,WUHU216DAVISVP2,2013-11-26 09:21:00,
2013-11-26 04:22:00,30.5,25.7,29.29,WSW,241,5.0,12.0,82,0.00,,,0.00,WUHU216DAVISVP2,2013-11-26 09:22:00,
2013-11-26 04:23:00,30.5,25.7,29.29,WSW,242,0.0,12.0,82,0.00,,,0.00,WUHU216DAVISVP2,2013-11-26 09:23:00,
2013-11-26 04:25:00,30.6,25.8,29.29,WSW,251,7.0,12.0,82,0.00,,,0.00,WUHU216DAVISVP2,2013-11-26 09:25:00,
2013-11-26 04:26:00,30.6,25.8,29.29,WSW,243,2.0,12.0,82,0.00,,,0.00,WUHU216DAVISVP2,2013-11-26 09:26:00,
2013-11-26 04:27:00,30.6,25.8,29.29,WSW,249,9.0,12.0,82,0.00,,,0.00,WUHU216DAVISVP2,2013-11-26 09:27:00,
2013-11-26 04:28:00,30.6,25.5,29.29,West,265,7.0,13.0,81,0.00,,,0.00,WUHU216DAVISVP2,2013-11-26 09:28:00,
2013-11-26 04:31:00,30.6,25.5,29.28,WSW,245,9.0,13.0,81,0.00,,,0.00,WUHU216DAVISVP2,2013-11-26 09:31:00,
2013-11-26 04:32:00,30.7,25.6,29.28,WSW,249,4.0,13.0,81,0.00,,,0.00,WUHU216DAVISVP2,2013-11-26 09:32:00,
2013-11-26 04:33:00,30.6,25.5,29.28,WSW,247,5.0,13.0,81,0.00,,,0.00,WUHU216DAVISVP2,2013-11-26 09:33:00,
2013-11-26 04:36:00,30.6,25.5,29.28,WSW,241,1.0,13.0,81,0.00,,,0.00,WUHU216DAVISVP2,2013-11-26 09:36:00,
2013-11-26 04:37:00,30.6,25.5,29.28,WSW,243,7.0,13.0,81,0.00,,,0.00,WUHU216DAVISVP2,2013-11-26 09:37:00,
2013-11-26 04:38:00,30.7,25.6,29.28,WSW,251,8.0,13.0,81,0.00,,,0.00,WUHU216DAVISVP2,2013-11-26 09:38:00,
2013-11-26 04:41:00,30.7,25.6,29.28,West,262,7.0,13.0,81,0.00,,,0.00,WUHU216DAVISVP2,2013-11-26 09:41:00,
2013-11-26 04:42:00,30.7,25.6,29.28,WSW,252,5.0,13.0,81,0.00,,,0.00,WUHU216DAVISVP2,2013-11-26 09:42:00,
2013-11-26 04:43:00,30.7,25.6,29.28,WSW,252,5.0,13.0,81,0.00,,,0.00,WUHU216DAVISVP2,2013-11-26 09:43:00,
2013-11-26 04:46:00,30.6,25.2,29.27,SW,234,4.0,12.0,80,0.00,,,0.00,WUHU216DAVISVP2,2013-11-26 09:46:00,
2013-11-26 04:48:00,30.6,25.2,29.27,WSW,245,5.0,12.0,80,0.00,,,0.00,WUHU216DAVISVP2,2013-11-26 09:48:00,
2013-11-26 04:49:00,30.6,25.2,29.27,WSW,245,0.0,12.0,80,0.00,,,0.00,WUHU216DAVISVP2,2013-11-26 09:49:00,
2013-11-26 04:51:00,30.6,25.2,29.27,WSW,258,4.0,12.0,80,0.00,,,0.00,WUHU216DAVISVP2,2013-11-26 09:51:00,
2013-11-26 04:53:00,30.6,25.2,29.27,WSW,256,5.0,12.0,80,0.00,,,0.00,WUHU216DAVISVP2,2013-11-26 09:53:00,
2013-11-26 04:54:00,30.6,25.2,29.27,WSW,256,6.0,12.0,80,0.00,,,0.00,WUHU216DAVISVP2,2013-11-26 09:54:00,
2013-11-26 04:55:00,30.6,25.2,29.27,WSW,239,9.0,12.0,80,0.00,,,0.00,WUHU216DAVISVP2,2013-11-26 09:55:00,
2013-11-26 04:56:00,30.6,25.2,29.28,WSW,249,8.0,11.0,80,0.00,,,0.00,WUHU216DAVISVP2,2013-11-26 09:56:00,
2013-11-26 04:58:00,30.6,25.2,29.28,West,276,5.0,11.0,80,0.00,,,0.00,WUHU216DAVISVP2,2013-11-26 09:58:00,
2013-11-26 04:59:00,30.6,25.2,29.28,West,259,5.0,11.0,80,0.00,,,0.00,WUHU216DAVISVP2,2013-11-26 09:59:00,
2013-11-26 05:01:00,30.6,25.2,29.28,West,271,5.0,11.0,80,0.00,,,0.00,WUHU216DAVISVP2,2013-11-26 10:01:00,
2013-11-26 05:04:00,30.6,25.2,29.27,WSW,247,7.0,11.0,80,0.00,,,0.00,WUHU216DAVISVP2,2013-11-26 10:04:00,
2013-11-26 05:05:00,30.6,25.2,29.27,WSW,258,7.0,11.0,80,0.00,,,0.00,WUHU216DAVISVP2,2013-11-26 10:05:00,
2013-11-26 05:06:00,30.6,25.2,29.27,West,266,9.0,10.0,80,0.00,,,0.00,WUHU216DAVISVP2,2013-11-26 10:06:00,
2013-11-26 05:07:00,30.6,25.2,29.27,West,266,8.0,10.0,80,0.00,,,0.00,WUHU216DAVISVP2,2013-11-26 10:07:00,
2013-11-26 05:09:00,30.6,25.2,29.27,WSW,256,5.0,10.0,80,0.00,,,0.00,WUHU216DAVISVP2,2013-11-26 10:09:00,
2013-11-26 05:10:00,30.6,25.2,29.27,West,270,7.0,10.0,80,0.00,,,0.00,WUHU216DAVISVP2,2013-11-26 10:10:00,
2013-11-26 05:11:00,30.6,25.2,29.27,West,264,4.0,10.0,80,0.00,,,0.00,WUHU216DAVISVP2,2013-11-26 10:11:00,
2013-11-26 05:12:00,30.6,25.2,29.27,West,264,6.0,10.0,80,0.00,,,0.00,WUHU216DAVISVP2,2013-11-26 10:12:00,
2013-11-26 05:14:00,30.6,25.2,29.27,West,260,1.0,9.0,80,0.00,,,0.00,WUHU216DAVISVP2,2013-11-26 10:14:00,
2013-11-26 05:15:00,30.6,25.2,29.27,West,260,5.0,9.0,80,0.00,,,0.00,WUHU216DAVISVP2,2013-11-26 10:15:00,
2013-11-26 05:16:00,30.6,25.2,29.27,West,260,4.0,9.0,80,0.00,,,0.00,WUHU216DAVISVP2,2013-11-26 10:16:00,
2013-11-26 05:17:00,30.6,25.2,29.27,West,260,1.0,9.0,80,0.00,,,0.00,WUHU216DAVISVP2,2013-11-26 10:17:00,
2013-11-26 05:19:00,30.5,25.1,29.27,WSW,258,5.0,9.0,80,0.00,,,0.00,WUHU216DAVISVP2,2013-11-26 10:19:00,
2013-11-26 05:20:00,30.5,25.1,29.27,WSW,258,4.0,9.0,80,0.00,,,0.00,WUHU216DAVISVP2,2013-11-26 10:20:00,
2013-11-26 05:21:00,30.5,25.1,29.27,WSW,258,3.0,9.0,80,0.00,,,0.00,WUHU216DAVISVP2,2013-11-26 10:21:00,
2013-11-26 05:22:00,30.5,25.1,29.27,WSW,258,3.0,9.0,80,0.00,,,0.00,WUHU216DAVISVP2,2013-11-26 10:22:00,
2013-11-26 05:25:00,30.5,25.1,29.27,WSW,250,6.0,9.0,80,0.00,,,0.00,WUHU216DAVISVP2,2013-11-26 10:25:00,
2013-11-26 05:26:00,30.5,25.1,29.27,West,270,2.0,9.0,80,0.00,,,0.00,WUHU216DAVISVP2,2013-11-26 10:26:00,
2013-11-26 05:27:00,30.5,24.8,29.27,West,270,5.0,9.0,79,0.00,,,0.00,WUHU216DAVISVP2,2013-11-26 10:27:00,
2013-11-26 05:30:00,30.6,24.9,29.27,WSW,249,8.0,9.0,79,0.00,,,0.00,WUHU216DAVISVP2,2013-11-26 10:30:00,
2013-11-26 05:31:00,30.6,24.9,29.27,West,259,6.0,9.0,79,0.00,,,0.00,WUHU216DAVISVP2,2013-11-26 10:31:00,
2013-11-26 05:32:00,30.6,24.9,29.27,West,259,7.0,9.0,79,0.00,,,0.00,WUHU216DAVISVP2,2013-11-26 10:32:00,
2013-11-26 05:33:00,30.6,24.9,29.27,West,259,5.0,9.0,79,0.00,,,0.00,WUHU216DAVISVP2,2013-11-26 10:33:00,
2013-11-26 05:35:00,30.6,24.9,29.27,West,266,7.0,9.0,79,0.00,,,0.00,WUHU216DAVISVP2,2013-11-26 10:35:00,
2013-11-26 05:36:00,30.6,24.9,29.27,West,267,6.0,9.0,79,0.00,,,0.00,WUHU216DAVISVP2,2013-11-26 10:36:00,
2013-11-26 05:37:00,30.6,24.9,29.27,West,263,7.0,9.0,79,0.00,,,0.00,WUHU216DAVISVP2,2013-11-26 10:37:00,
2013-11-26 05:38:00,30.6,24.9,29.27,West,268,6.0,9.0,79,0.00,,,0.00,WUHU216DAVISVP2,2013-11-26 10:38:00,
2013-11-26 05:40:00,30.6,24.9,29.27,West,268,5.0,9.0,79,0.00,,,0.00,WUHU216DAVISVP2,2013-11-26 10:40:00,
2013-11-26 05:41:00,30.6,24.9,29.27,West,268,6.0,9.0,79,0.00,,,0.00,WUHU216DAVISVP2,2013-11-26 10:41:00,
2013-11-26 05:42:00,30.6,24.9,29.27,West,268,6.0,9.0,79,0.00,,,0.00,WUHU216DAVISVP2,2013-11-26 10:42:00,
2013-11-26 05:43:00,30.6,24.9,29.27,West,268,0.0,9.0,79,0.00,,,0.00,WUHU216DAVISVP2,2013-11-26 10:43:00,
2013-11-26 05:44:00,30.6,24.9,29.27,WSW,254,0.0,9.0,79,0.00,,,0.00,WUHU216DAVISVP2,2013-11-26 10:44:00,
2013-11-26 05:45:00,30.6,24.9,29.27,WSW,253,6.0,9.0,79,0.00,,,0.00,WUHU216DAVISVP2,2013-11-26 10:45:00,
2013-11-26 05:46:00,30.6,24.9,29.27,WSW,249,2.0,10.0,79,0.00,,,0.00,WUHU216DAVISVP2,2013-11-26 10:46:00,
2013-11-26 05:47:00,30.6,24.9,29.27,WSW,249,7.0,10.0,79,0.00,,,0.00,WUHU216DAVISVP2,2013-11-26 10:47:00,
2013-11-26 05:48:00,30.6,24.9,29.27,WSW,248,6.0,10.0,79,0.00,,,0.00,WUHU216DAVISVP2,2013-11-26 10:48:00,
2013-11-26 05:49:00,30.6,24.9,29.27,WSW,248,4.0,10.0,79,0.00,,,0.00,WUHU216DAVISVP2,2013-11-26 10:49:00,
2013-11-26 05:50:00,30.6,24.9,29.27,WSW,248,1.0,10.0,79,0.00,,,0.00,WUHU216DAVISVP2,2013-11-26 10:50:00,
2013-11-26 05:51:00,30.6,24.9,29.27,WSW,247,6.0,10.0,79,0.00,,,0.00,WUHU216DAVISVP2,2013-11-26 10:51:00,
2013-11-26 05:52:00,30.6,24.9,29.26,WSW,247,0.0,10.0,79,0.00,,,0.00,WUHU216DAVISVP2,2013-11-26 10:52:00,
2013-11-26 05:53:00,30.6,24.9,29.26,WSW,240,1.0,10.0,79,0.00,,,0.00,WUHU216DAVISVP2,2013-11-26 10:53:00,
2013-11-26 05:55:00,30.6,24.9,29.26,WSW,240,3.0,10.0,79,0.00,,,0.00,WUHU216DAVISVP2,2013-11-26 10:55:00,
2013-11-26 05:56:00,30.6,24.9,29.26,WSW,239,7.0,10.0,79,0.00,,,0.00,WUHU216DAVISVP2,2013-11-26 10:56:00,
2013-11-26 05:57:00,30.7,25.0,29.27,WSW,239,5.0,10.0,79,0.00,,,0.00,WUHU216DAVISVP2,2013-11-26 10:57:00,
2013-11-26 05:58:00,30.7,25.0,29.27,WSW,256,3.0,10.0,79,0.00,,,0.00,WUHU216DAVISVP2,2013-11-26 10:58:00,
2013-11-26 06:00:00,30.7,25.0,29.27,WSW,256,6.0,10.0,79,0.00,,,0.00,WUHU216DAVISVP2,2013-11-26 11:00:00,
2013-11-26 06:01:00,30.7,25.0,29.27,WSW,256,1.0,10.0,79,0.00,,,0.00,WUHU216DAVISVP2,2013-11-26 11:01:00,
2013-11-26 06:02:00,30.7,25.0,29.27,WSW,251,8.0,10.0,79,0.00,,,0.00,WUHU216DAVISVP2,2013-11-26 11:02:00,
2013-11-26 06:03:00,30.7,25.0,29.27,WSW,249,8.0,10.0,79,0.00,,,0.00,WUHU216DAVISVP2,2013-11-26 11:03:00,
2013-11-26 06:04:00,30.7,25.0,29.27,SW,222,1.0,10.0,79,0.00,,,0.00,WUHU216DAVISVP2,2013-11-26 11:04:00,
2013-11-26 06:05:00,30.7,25.0,29.26,SW,227,0.0,10.0,79,0.00,,,0.00,WUHU216DAVISVP2,2013-11-26 11:05:00,
2013-11-26 06:06:00,30.7,25.0,29.26,SW,227,0.0,10.0,79,0.00,,,0.00,WUHU216DAVISVP2,2013-11-26 11:06:00,
2013-11-26 06:07:00,30.7,25.0,29.26,SW,235,1.0,10.0,79,0.00,,,0.00,WUHU216DAVISVP2,2013-11-26 11:07:00,
2013-11-26 06:08:00,30.7,25.0,29.26,SW,235,4.0,10.0,79,0.00,,,0.00,WUHU216DAVISVP2,2013-11-26 11:08:00,
2013-11-26 06:09:00,30.7,25.0,29.26,SW,235,4.0,10.0,79,0.00,,,0.00,WUHU216DAVISVP2,2013-11-26 11:09:00,
2013-11-26 06:11:00,30.8,25.1,29.27,WSW,237,4.0,10.0,79,0.00,,,0.00,WUHU216DAVISVP2,2013-11-26 11:11:00,
2013-11-26 06:12:00,30.8,25.1,29.27,WSW,242,4.0,10.0,79,0.00,,,0.00,WUHU216DAVISVP2,2013-11-26 11:12:00,
2013-11-26 06:13:00,30.8,25.1,29.26,West,260,8.0,10.0,79,0.00,,,0.00,WUHU216DAVISVP2,2013-11-26 11:13:00,
2013-11-26 06:14:00,30.8,25.1,29.26,WSW,245,8.0,10.0,79,0.00,,,0.00,WUHU216DAVISVP2,2013-11-26 11:14:00,
2013-11-26 06:16:00,30.8,25.1,29.26,West,270,5.0,10.0,79,0.00,,,0.00,WUHU216DAVISVP2,2013-11-26 11:16:00,
2013-11-26 06:17:00,30.8,24.8,29.26,West,263,5.0,10.0,78,0.00,,,0.00,WUHU216DAVISVP2,2013-11-26 11:17:00,
2013-11-26 06:18:00,30.8,24.8,29.26,West,263,5.0,10.0,78,0.00,,,0.00,WUHU216DAVISVP2,2013-11-26 11:18:00,
2013-11-26 06:19:00,30.7,24.7,29.26,West,263,2.0,10.0,78,0.00,,,0.00,WUHU216DAVISVP2,2013-11-26 11:19:00,
2013-11-26 06:21:00,30.7,24.7,29.26,West,260,4.0,10.0,78,0.00,,,0.00,WUHU216DAVISVP2,2013-11-26 11:21:00,
2013-11-26 06:22:00,30.7,24.7,29.26,West,260,3.0,9.0,78,0.00,,,0.00,WUHU216DAVISVP2,2013-11-26 11:22:00,
2013-11-26 06:23:00,30.7,25.0,29.26,West,260,6.0,9.0,79,0.00,,,0.00,WUHU216DAVISVP2,2013-11-26 11:23:00,
2013-11-26 06:25:00,30.7,25.0,29.26,West,260,5.0,9.0,79,0.00,,,0.00,WUHU216DAVISVP2,2013-11-26 11:25:00,
2013-11-26 06:26:00,30.6,24.9,29.26,West,260,0.0,9.0,79,0.00,,,0.00,WUHU216DAVISVP2,2013-11-26 11:26:00,
2013-11-26 06:27:00,30.7,25.0,29.25,West,260,6.0,9.0,79,0.00,,,0.00,WUHU216DAVISVP2,2013-11-26 11:27:00,
2013-11-26 06:28:00,30.6,24.9,29.25,West,260,4.0,9.0,79,0.00,,,0.00,WUHU216DAVISVP2,2013-11-26 11:28:00,
2013-11-26 06:30:00,30.7,25.0,29.25,West,260,5.0,9.0,79,0.00,,,0.00,WUHU216DAVISVP2,2013-11-26 11:30:00,
2013-11-26 06:31:00,30.6,24.9,29.25,West,260,5.0,9.0,79,0.00,,,0.00,WUHU216DAVISVP2,2013-11-26 11:31:00,
2013-11-26 06:32:00,30.6,24.9,29.25,West,260,5.0,8.0,79,0.00,,,0.00,WUHU216DAVISVP2,2013-11-26 11:32:00,
2013-11-26 06:33:00,30.6,24.9,29.25,West,260,4.0,8.0,79,0.00,,,0.00,WUHU216DAVISVP2,2013-11-26 11:33:00,
2013-11-26 06:35:00,30.6,24.9,29.26,West,260,6.0,8.0,79,0.00,,,0.00,WUHU216DAVISVP2,2013-11-26 11:35:00,
2013-11-26 06:37:00,30.6,24.9,29.25,West,260,6.0,8.0,79,0.00,,,0.00,WUHU216DAVISVP2,2013-11-26 11:37:00,
2013-11-26 06:38:00,30.7,25.0,29.25,West,260,5.0,8.0,79,0.00,,,0.00,WUHU216DAVISVP2,2013-11-26 11:38:00,
2013-11-26 06:39:00,30.7,25.0,29.25,West,260,6.0,8.0,79,0.00,,,0.00,WUHU216DAVISVP2,2013-11-26 11:39:00,
2013-11-26 06:40:00,30.7,25.0,29.26,WSW,251,4.0,8.0,79,0.00,,,0.00,WUHU216DAVISVP2,2013-11-26 11:40:00,
2013-11-26 06:41:00,30.7,25.0,29.26,WSW,252,4.0,8.0,79,0.00,,,0.00,WUHU216DAVISVP2,2013-11-26 11:41:00,
2013-11-26 06:42:00,30.7,25.0,29.26,WSW,252,4.0,8.0,79,0.00,,,0.00,WUHU216DAVISVP2,2013-11-26 11:42:00,
2013-11-26 06:43:00,30.7,25.0,29.26,WSW,252,2.0,8.0,79,0.00,,,0.00,WUHU216DAVISVP2,2013-11-26 11:43:00,
2013-11-26 06:44:00,30.7,25.0,29.26,WSW,252,0.0,8.0,79,0.00,,,0.00,WUHU216DAVISVP2,2013-11-26 11:44:00,
2013-11-26 06:45:00,30.7,25.0,29.26,WSW,251,5.0,8.0,79,0.00,,,0.00,WUHU216DAVISVP2,2013-11-26 11:45:00,
2013-11-26 06:46:00,30.7,25.0,29.25,WSW,251,3.0,8.0,79,0.00,,,0.00,WUHU216DAVISVP2,2013-11-26 11:46:00,
2013-11-26 06:47:00,30.7,25.0,29.25,WSW,251,4.0,8.0,79,0.00,,,0.00,WUHU216DAVISVP2,2013-11-26 11:47:00,
2013-11-26 06:48:00,30.7,25.0,29.25,West,267,3.0,10.0,79,0.00,,,0.00,WUHU216DAVISVP2,2013-11-26 11:48:00,
2013-11-26 06:49:00,30.7,25.0,29.25,West,268,4.0,10.0,79,0.00,,,0.00,WUHU216DAVISVP2,2013-11-26 11:49:00,
2013-11-26 06:51:00,30.7,25.0,29.25,WSW,241,5.0,10.0,79,0.00,,,0.00,WUHU216DAVISVP2,2013-11-26 11:51:00,
2013-11-26 06:52:00,30.7,25.0,29.25,WSW,241,5.0,10.0,79,0.00,,,0.00,WUHU216DAVISVP2,2013-11-26 11:52:00,
2013-11-26 06:53:00,30.7,25.0,29.25,West,259,3.0,10.0,79,0.00,,,0.00,WUHU216DAVISVP2,2013-11-26 11:53:00,
2013-11-26 06:54:00,30.7,25.0,29.25,West,272,0.0,10.0,79,0.00,,,0.00,WUHU216DAVISVP2,2013-11-26 11:54:00,
2013-11-26 06:55:00,30.7,25.0,29.25,West,272,0.0,10.0,79,0.00,,,0.00,WUHU216DAVISVP2,2013-11-26 11:55:00,
2013-11-26 06:56:00,30.7,25.0,29.26,West,272,6.0,10.0,79,0.00,,,0.00,WUHU216DAVISVP2,2013-11-26 11:56:00,
2013-11-26 06:57:00,30.7,25.0,29.26,WSW,257,5.0,10.0,79,0.00,,,0.00,WUHU216DAVISVP2,2013-11-26 11:57:00,
2013-11-26 06:58:00,30.7,25.0,29.25,West,259,5.0,10.0,79,0.00,,,0.00,WUHU216DAVISVP2,2013-11-26 11:58:00,
2013-11-26 06:59:00,30.8,24.7,29.25,West,266,4.0,10.0,78,0.00,,,0.00,WUHU216DAVISVP2,2013-11-26 11:59:00,
2013-11-26 07:00:00,30.7,24.7,29.25,West,266,6.0,10.0,78,0.00,,,0.00,WUHU216DAVISVP2,2013-11-26 12:00:00,
2013-11-26 07:01:00,30.8,24.7,29.25,West,259,7.0,10.0,78,0.00,,,0.00,WUHU216DAVISVP2,2013-11-26 12:01:00,
2013-11-26 07:02:00,30.7,24.7,29.25,WSW,256,5.0,10.0,78,0.00,,,0.00,WUHU216DAVISVP2,2013-11-26 12:02:00,
2013-11-26 07:03:00,30.8,24.8,29.25,West,272,6.0,10.0,78,0.00,,,0.00,WUHU216DAVISVP2,2013-11-26 12:03:00,
2013-11-26 07:05:00,30.8,24.8,29.25,West,272,6.0,10.0,78,0.00,,,0.00,WUHU216DAVISVP2,2013-11-26 12:05:00,
2013-11-26 07:06:00,30.8,24.8,29.25,West,272,1.0,10.0,78,0.00,,,0.00,WUHU216DAVISVP2,2013-11-26 12:06:00,
2013-11-26 07:07:00,30.8,24.8,29.25,West,272,0.0,9.0,78,0.00,,,0.00,WUHU216DAVISVP2,2013-11-26 12:07:00,
2013-11-26 07:08:00,30.8,24.8,29.25,West,272,5.0,9.0,78,0.00,,,0.00,WUHU216DAVISVP2,2013-11-26 12:08:00,
2013-11-26 07:10:00,30.8,24.8,29.25,WSW,253,4.0,9.0,78,0.00,,,0.00,WUHU216DAVISVP2,2013-11-26 12:10:00,
2013-11-26 07:11:00,30.8,24.8,29.25,West,273,7.0,9.0,78,0.00,,,0.00,WUHU216DAVISVP2,2013-11-26 12:11:00,
2013-11-26 07:12:00,30.8,24.8,29.25,West,266,5.0,9.0,78,0.00,,,0.00,WUHU216DAVISVP2,2013-11-26 12:12:00,
2013-11-26 07:13:00,30.8,24.8,29.25,West,266,4.0,9.0,78,0.00,,,0.00,WUHU216DAVISVP2,2013-11-26 12:13:00,
2013-11-26 07:14:00,30.8,24.8,29.25,West,260,5.0,9.0,78,0.00,,,0.00,WUHU216DAVISVP2,2013-11-26 12:14:00,
2013-11-26 07:15:00,30.8,24.8,29.25,West,264,4.0,9.0,78,0.00,,,0.00,WUHU216DAVISVP2,2013-11-26 12:15:00,
2013-11-26 07:16:00,30.8,24.8,29.25,West,264,4.0,9.0,78,0.00,,,0.00,WUHU216DAVISVP2,2013-11-26 12:16:00,
2013-11-26 07:17:00,30.8,24.8,29.25,West,264,0.0,9.0,78,0.00,,,0.00,WUHU216DAVISVP2,2013-11-26 12:17:00,
2013-11-26 07:18:00,30.8,24.8,29.25,West,264,6.0,9.0,78,0.00,,,0.00,WUHU216DAVISVP2,2013-11-26 12:18:00,
2013-11-26 07:19:00,30.8,24.8,29.24,West,264,2.0,9.0,78,0.00,,,0.00,WUHU216DAVISVP2,2013-11-26 12:19:00,
2013-11-26 07:20:00,30.8,24.8,29.24,West,264,0.0,9.0,78,0.00,,,0.00,WUHU216DAVISVP2,2013-11-26 12:20:00,
2013-11-26 07:21:00,30.8,24.8,29.24,West,264,4.0,9.0,78,0.00,,,0.00,WUHU216DAVISVP2,2013-11-26 12:21:00,
2013-11-26 07:22:00,30.8,24.8,29.24,West,264,6.0,9.0,78,0.00,,,0.00,WUHU216DAVISVP2,2013-11-26 12:22:00,
2013-11-26 07:23:00,30.8,24.8,29.24,West,264,0.0,9.0,78,0.00,,,0.00,WUHU216DAVISVP2,2013-11-26 12:23:00,
2013-11-26 07:24:00,30.8,24.8,29.24,West,264,4.0,9.0,78,0.00,,,0.00,WUHU216DAVISVP2,2013-11-26 12:24:00,
2013-11-26 07:25:00,30.8,24.8,29.24,WSW,249,6.0,9.0,78,0.00,,,0.00,WUHU216DAVISVP2,2013-11-26 12:25:00,
2013-11-26 07:26:00,30.8,24.8,29.24,WSW,255,5.0,9.0,78,0.00,,,0.00,WUHU216DAVISVP2,2013-11-26 12:26:00,
2013-11-26 07:27:00,30.8,24.8,29.24,WSW,251,3.0,9.0,78,0.00,,,0.00,WUHU216DAVISVP2,2013-11-26 12:27:00,
2013-11-26 07:28:00,30.8,24.8,29.24,WSW,251,0.0,9.0,78,0.00,,,0.00,WUHU216DAVISVP2,2013-11-26 12:28:00,
2013-11-26 07:29:00,30.8,24.8,29.24,WSW,252,5.0,9.0,78,0.00,,,0.00,WUHU216DAVISVP2,2013-11-26 12:29:00,
2013-11-26 07:30:00,30.8,24.8,29.24,WSW,252,6.0,9.0,78,0.00,,,0.00,WUHU216DAVISVP2,2013-11-26 12:30:00,
2013-11-26 07:32:00,30.8,24.7,29.25,WSW,252,5.0,9.0,78,0.00,,,0.00,WUHU216DAVISVP2,2013-11-26 12:32:00,
2013-11-26 07:33:00,30.9,24.8,29.25,WSW,252,5.0,9.0,78,0.00,,,0.00,WUHU216DAVISVP2,2013-11-26 12:33:00,
2013-11-26 07:34:00,30.8,24.7,29.25,West,264,0.0,9.0,78,0.00,,,0.00,WUHU216DAVISVP2,2013-11-26 12:34:00,
2013-11-26 07:36:00,30.8,24.7,29.24,West,267,2.0,9.0,78,0.00,,,0.00,WUHU216DAVISVP2,2013-11-26 12:36:00,
2013-11-26 07:37:00,30.8,24.7,29.25,West,266,1.0,9.0,78,0.00,,,0.00,WUHU216DAVISVP2,2013-11-26 12:37:00,
2013-11-26 07:38:00,30.8,24.7,29.25,West,264,5.0,9.0,78,0.00,,,0.00,WUHU216DAVISVP2,2013-11-26 12:38:00,
2013-11-26 07:40:00,30.8,24.7,29.25,WSW,256,7.0,9.0,78,0.00,,,0.00,WUHU216DAVISVP2,2013-11-26 12:40:00,
2013-11-26 07:41:00,30.8,24.7,29.25,West,265,5.0,9.0,78,0.00,,,0.00,WUHU216DAVISVP2,2013-11-26 12:41:00,
2013-11-26 07:42:00,30.9,24.9,29.25,West,265,0.0,9.0,78,0.00,,,0.00,WUHU216DAVISVP2,2013-11-26 12:42:00,
2013-11-26 07:43:00,30.9,24.9,29.25,West,265,2.0,9.0,78,0.00,,,0.00,WUHU216DAVISVP2,2013-11-26 12:43:00,
2013-11-26 07:45:00,30.8,24.8,29.24,West,265,4.0,9.0,78,0.00,,,0.00,WUHU216DAVISVP2,2013-11-26 12:45:00,
2013-11-26 07:46:00,30.8,24.8,29.24,West,264,5.0,9.0,78,0.00,,,0.00,WUHU216DAVISVP2,2013-11-26 12:46:00,
2013-11-26 07:48:00,30.8,24.8,29.24,West,265,6.0,9.0,78,0.00,,,0.00,WUHU216DAVISVP2,2013-11-26 12:48:00,
2013-11-26 07:50:00,30.8,24.8,29.25,West,265,6.0,9.0,78,0.00,,,0.00,WUHU216DAVISVP2,2013-11-26 12:50:00,
2013-11-26 07:51:00,30.9,24.9,29.25,West,264,6.0,9.0,78,0.00,,,0.00,WUHU216DAVISVP2,2013-11-26 12:51:00,
2013-11-26 07:52:00,30.8,24.8,29.25,West,264,2.0,9.0,78,0.00,,,0.00,WUHU216DAVISVP2,2013-11-26 12:52:00,
2013-11-26 07:53:00,30.9,24.9,29.25,West,264,6.0,9.0,78,0.00,,,0.00,WUHU216DAVISVP2,2013-11-26 12:53:00,
2013-11-26 07:56:00,30.8,24.8,29.24,West,264,0.0,9.0,78,0.00,,,0.00,WUHU216DAVISVP2,2013-11-26 12:56:00,
2013-11-26 07:57:00,30.8,24.8,29.24,West,265,4.0,9.0,78,0.00,,,0.00,WUHU216DAVISVP2,2013-11-26 12:57:00,
2013-11-26 07:58:00,30.8,24.8,29.24,West,265,0.0,8.0,78,0.00,,,0.00,WUHU216DAVISVP2,2013-11-26 12:58:00,
2013-11-26 07:59:00,30.8,24.8,29.24,West,264,0.0,7.0,78,0.00,,,0.00,WUHU216DAVISVP2,2013-11-26 12:59:00,
2013-11-26 08:01:00,30.8,24.8,29.25,West,264,0.0,7.0,78,0.00,,,0.00,WUHU216DAVISVP2,2013-11-26 13:01:00,
2013-11-26 08:02:00,30.8,24.8,29.25,West,264,4.0,7.0,78,0.00,,,0.00,WUHU216DAVISVP2,2013-11-26 13:02:00,
2013-11-26 08:03:00,30.8,25.1,29.25,West,264,3.0,7.0,79,0.00,,,0.00,WUHU216DAVISVP2,2013-11-26 13:03:00,
2013-11-26 08:04:00,30.8,25.1,29.25,West,265,0.0,7.0,79,0.00,,,0.00,WUHU216DAVISVP2,2013-11-26 13:04:00,
2013-11-26 08:06:00,30.8,25.1,29.25,West,264,4.0,7.0,79,0.00,,,0.00,WUHU216DAVISVP2,2013-11-26 13:06:00,
2013-11-26 08:07:00,30.8,25.1,29.25,West,264,2.0,7.0,79,0.00,,,0.00,WUHU216DAVISVP2,2013-11-26 13:07:00,
2013-11-26 08:08:00,30.8,25.1,29.25,West,264,0.0,7.0,79,0.00,,,0.00,WUHU216DAVISVP2,2013-11-26 13:08:00,
2013-11-26 08:09:00,30.8,25.1,29.25,West,265,0.0,7.0,79,0.00,,,0.00,WUHU216DAVISVP2,2013-11-26 13:09:00,
2013-11-26 08:11:00,30.8,25.1,29.26,West,264,6.0,7.0,79,0.00,,,0.00,WUHU216DAVISVP2,2013-11-26 13:11:00,
2013-11-26 08:12:00,30.8,25.1,29.26,West,264,4.0,7.0,79,0.00,,,0.00,WUHU216DAVISVP2,2013-11-26 13:12:00,
2013-11-26 08:13:00,30.8,25.1,29.26,West,264,6.0,8.0,79,0.00,,,0.00,WUHU216DAVISVP2,2013-11-26 13:13:00,
2013-11-26 08:14:00,30.8,25.1,29.26,West,264,5.0,8.0,79,0.00,,,0.00,WUHU216DAVISVP2,2013-11-26 13:14:00,
2013-11-26 08:15:00,30.8,25.1,29.26,West,264,6.0,8.0,79,0.00,,,0.00,WUHU216DAVISVP2,2013-11-26 13:15:00,
2013-11-26 08:16:00,30.9,25.2,29.27,West,278,4.0,8.0,79,0.00,,,0.00,WUHU216DAVISVP2,2013-11-26 13:16:00,
2013-11-26 08:18:00,30.9,25.2,29.27,WSW,256,8.0,10.0,79,0.00,,,0.00,WUHU216DAVISVP2,2013-11-26 13:18:00,
2013-11-26 08:19:00,30.9,25.2,29.27,WSW,250,6.0,10.0,79,0.00,,,0.00,WUHU216DAVISVP2,2013-11-26 13:19:00,
2013-11-26 08:21:00,30.9,24.8,29.27,WSW,250,0.0,10.0,78,0.00,,,0.00,WUHU216DAVISVP2,2013-11-26 13:21:00,
2013-11-26 08:23:00,31.0,25.2,29.26,SW,230,0.0,10.0,79,0.00,,,0.00,WUHU216DAVISVP2,2013-11-26 13:23:00,
2013-11-26 08:24:00,30.9,25.2,29.26,SW,230,0.0,10.0,79,0.00,,,0.00,WUHU216DAVISVP2,2013-11-26 13:24:00,
2013-11-26 08:26:00,31.0,25.2,29.26,SW,233,5.0,10.0,79,0.00,,,0.00,WUHU216DAVISVP2,2013-11-26 13:26:00,
2013-11-26 08:27:00,31.0,25.2,29.26,WSW,256,6.0,10.0,79,0.00,,,0.00,WUHU216DAVISVP2,2013-11-26 13:27:00,
2013-11-26 08:29:00,31.0,25.2,29.26,West,275,5.0,10.0,79,0.00,,,0.00,WUHU216DAVISVP2,2013-11-26 13:29:00,
2013-11-26 08:30:00,31.0,25.0,29.25,West,274,0.0,10.0,78,0.00,,,0.00,WUHU216DAVISVP2,2013-11-26 13:30:00,
2013-11-26 08:31:00,31.0,25.0,29.25,West,275,6.0,10.0,78,0.00,,,0.00,WUHU216DAVISVP2,2013-11-26 13:31:00,
2013-11-26 08:32:00,31.0,25.0,29.26,West,274,2.0,10.0,78,0.00,,,0.00,WUHU216DAVISVP2,2013-11-26 13:32:00,
2013-11-26 08:34:00,30.9,24.9,29.26,West,261,6.0,10.0,78,0.00,,,0.00,WUHU216DAVISVP2,2013-11-26 13:34:00,
2013-11-26 08:36:00,30.9,24.9,29.26,West,261,4.0,10.0,78,0.00,,,0.00,WUHU216DAVISVP2,2013-11-26 13:36:00,
2013-11-26 08:37:00,30.9,24.9,29.26,West,274,6.0,10.0,78,0.00,,,0.00,WUHU216DAVISVP2,2013-11-26 13:37:00,
2013-11-26 08:39:00,30.9,24.9,29.26,West,274,4.0,7.0,78,0.00,,,0.00,WUHU216DAVISVP2,2013-11-26 13:39:00,
2013-11-26 08:41:00,30.9,24.9,29.26,West,273,0.0,7.0,78,0.00,,,0.00,WUHU216DAVISVP2,2013-11-26 13:41:00,
2013-11-26 08:42:00,30.9,25.2,29.25,West,273,0.0,7.0,79,0.00,,,0.00,WUHU216DAVISVP2,2013-11-26 13:42:00,
2013-11-26 08:44:00,30.9,25.2,29.25,West,273,0.0,7.0,79,0.00,,,0.00,WUHU216DAVISVP2,2013-11-26 13:44:00,
2013-11-26 08:45:00,30.9,25.2,29.25,West,273,0.0,7.0,79,0.00,,,0.00,WUHU216DAVISVP2,2013-11-26 13:45:00,
2013-11-26 08:46:00,30.9,25.2,29.25,West,273,5.0,7.0,79,0.00,,,0.00,WUHU216DAVISVP2,2013-11-26 13:46:00,
2013-11-26 08:48:00,30.9,25.2,29.25,West,272,1.0,7.0,79,0.00,,,0.00,WUHU216DAVISVP2,2013-11-26 13:48:00,
2013-11-26 08:49:00,30.8,25.1,29.25,West,272,5.0,7.0,79,0.00,,,0.00,WUHU216DAVISVP2,2013-11-26 13:49:00,
2013-11-26 08:50:00,30.8,25.1,29.25,West,272,6.0,7.0,79,0.00,,,0.00,WUHU216DAVISVP2,2013-11-26 13:50:00,
2013-11-26 08:51:00,30.9,24.9,29.25,West,272,4.0,8.0,78,0.00,,,0.00,WUHU216DAVISVP2,2013-11-26 13:51:00,
2013-11-26 08:52:00,30.9,24.9,29.25,West,272,0.0,8.0,78,0.00,,,0.00,WUHU216DAVISVP2,2013-11-26 13:52:00,
2013-11-26 08:53:00,30.9,24.9,29.24,West,272,5.0,8.0,78,0.00,,,0.00,WUHU216DAVISVP2,2013-11-26 13:53:00,
2013-11-26 08:54:00,30.9,24.9,29.24,West,272,4.0,8.0,78,0.00,,,0.00,WUHU216DAVISVP2,2013-11-26 13:54:00,
2013-11-26 08:55:00,30.9,24.9,29.24,West,272,4.0,8.0,78,0.00,,,0.00,WUHU216DAVISVP2,2013-11-26 13:55:00,
2013-11-26 08:57:00,30.8,24.8,29.25,West,261,5.0,8.0,78,0.00,,,0.00,WUHU216DAVISVP2,2013-11-26 13:57:00,
2013-11-26 08:59:00,30.8,24.8,29.25,West,262,2.0,8.0,78,0.00,,,0.00,WUHU216DAVISVP2,2013-11-26 13:59:00,
2013-11-26 09:00:00,30.8,24.8,29.25,West,262,0.0,8.0,78,0.00,,,0.00,WUHU216DAVISVP2,2013-11-26 14:00:00,
2013-11-26 09:02:00,30.9,25.2,29.24,West,262,4.0,8.0,79,0.00,,,0.00,WUHU216DAVISVP2,2013-11-26 14:02:00,
2013-11-26 09:04:00,30.9,25.2,29.24,West,262,0.0,8.0,79,0.00,,,0.00,WUHU216DAVISVP2,2013-11-26 14:04:00,
2013-11-26 09:05:00,30.9,25.2,29.24,West,262,0.0,8.0,79,0.00,,,0.00,WUHU216DAVISVP2,2013-11-26 14:05:00,
2013-11-26 09:07:00,30.9,25.2,29.24,West,261,0.0,8.0,79,0.00,,,0.00,WUHU216DAVISVP2,2013-11-26 14:07:00,
2013-11-26 09:09:00,30.9,25.2,29.24,West,262,0.0,7.0,79,0.00,,,0.00,WUHU216DAVISVP2,2013-11-26 14:09:00,
2013-11-26 09:10:00,30.9,25.2,29.24,West,262,2.0,7.0,79,0.00,,,0.00,WUHU216DAVISVP2,2013-11-26 14:10:00,
2013-11-26 09:11:00,30.9,25.2,29.24,West,262,1.0,7.0,79,0.00,,,0.00,WUHU216DAVISVP2,2013-11-26 14:11:00,
2013-11-26 09:13:00,30.9,25.2,29.24,West,261,0.0,7.0,79,0.00,,,0.00,WUHU216DAVISVP2,2013-11-26 14:13:00,
2013-11-26 09:15:00,30.9,24.9,29.24,West,262,1.0,7.0,78,0.00,,,0.00,WUHU216DAVISVP2,2013-11-26 14:15:00,
2013-11-26 09:16:00,31.0,25.0,29.24,SW,235,4.0,9.0,78,0.00,,,0.00,WUHU216DAVISVP2,2013-11-26 14:16:00,
2013-11-26 09:19:00,31.0,25.0,29.24,SW,235,0.0,9.0,78,0.00,,,0.00,WUHU216DAVISVP2,2013-11-26 14:19:00,
2013-11-26 09:20:00,31.0,25.0,29.24,SW,235,5.0,9.0,78,0.00,,,0.00,WUHU216DAVISVP2,2013-11-26 14:20:00,
2013-11-26 09:21:00,31.0,25.3,29.24,SW,235,0.0,9.0,79,0.00,,,0.00,WUHU216DAVISVP2,2013-11-26 14:21:00,
2013-11-26 09:24:00,31.1,25.4,29.24,SW,235,0.0,9.0,79,0.00,,,0.00,WUHU216DAVISVP2,2013-11-26 14:24:00,
2013-11-26 09:25:00,31.1,25.4,29.24,SW,235,3.0,9.0,79,0.00,,,0.00,WUHU216DAVISVP2,2013-11-26 14:25:00,
2013-11-26 09:26:00,31.1,25.4,29.24,West,259,5.0,9.0,79,0.00,,,0.00,WUHU216DAVISVP2,2013-11-26 14:26:00,
2013-11-26 09:29:00,31.2,25.5,29.24,West,259,1.0,9.0,79,0.00,,,0.00,WUHU216DAVISVP2,2013-11-26 14:29:00,
2013-11-26 09:30:00,31.2,25.5,29.25,West,259,0.0,9.0,79,0.00,,,0.00,WUHU216DAVISVP2,2013-11-26 14:30:00,
2013-11-26 09:31:00,31.2,25.5,29.25,West,259,6.0,9.0,79,0.00,,,0.00,WUHU216DAVISVP2,2013-11-26 14:31:00,
2013-11-26 09:32:00,31.2,25.5,29.25,West,259,2.0,9.0,79,0.00,,,0.00,WUHU216DAVISVP2,2013-11-26 14:32:00,
2013-11-26 09:34:00,31.2,25.5,29.25,West,259,5.0,9.0,79,0.00,,,0.00,WUHU216DAVISVP2,2013-11-26 14:34:00,
2013-11-26 09:35:00,31.3,25.6,29.25,West,259,4.0,7.0,79,0.00,,,0.00,WUHU216DAVISVP2,2013-11-26 14:35:00,
2013-11-26 09:36:00,31.2,25.5,29.25,WNW,290,6.0,7.0,79,0.00,,,0.00,WUHU216DAVISVP2,2013-11-26 14:36:00,
2013-11-26 09:37:00,31.3,25.3,29.25,West,274,6.0,7.0,78,0.00,,,0.00,WUHU216DAVISVP2,2013-11-26 14:37:00,
2013-11-26 09:40:00,31.3,25.3,29.23,West,272,2.0,7.0,78,0.00,,,0.00,WUHU216DAVISVP2,2013-11-26 14:40:00,
2013-11-26 09:41:00,31.3,25.2,29.23,West,272,4.0,7.0,78,0.00,,,0.00,WUHU216DAVISVP2,2013-11-26 14:41:00,
2013-11-26 09:42:00,31.3,25.2,29.23,West,272,6.0,7.0,78,0.00,,,0.00,WUHU216DAVISVP2,2013-11-26 14:42:00,
2013-11-26 09:45:00,31.3,25.2,29.23,West,266,6.0,7.0,78,0.00,,,0.00,WUHU216DAVISVP2,2013-11-26 14:45:00,
2013-11-26 09:46:00,31.3,25.2,29.23,WSW,237,5.0,10.0,78,0.00,,,0.00,WUHU216DAVISVP2,2013-11-26 14:46:00,
2013-11-26 09:48:00,31.3,25.2,29.23,WSW,237,0.0,10.0,78,0.00,,,0.00,WUHU216DAVISVP2,2013-11-26 14:48:00,
2013-11-26 09:50:00,31.3,25.2,29.23,SW,236,6.0,10.0,78,0.00,,,0.00,WUHU216DAVISVP2,2013-11-26 14:50:00,
2013-11-26 09:52:00,31.3,25.2,29.23,WSW,237,5.0,10.0,78,0.00,,,0.00,WUHU216DAVISVP2,2013-11-26 14:52:00,
2013-11-26 09:53:00,31.4,25.3,29.23,WSW,237,6.0,10.0,78,0.00,,,0.00,WUHU216DAVISVP2,2013-11-26 14:53:00,
2013-11-26 09:56:00,31.5,25.4,29.23,West,266,4.0,10.0,78,0.00,,,0.00,WUHU216DAVISVP2,2013-11-26 14:56:00,
2013-11-26 09:57:00,31.5,25.4,29.23,West,266,5.0,10.0,78,0.00,,,0.00,WUHU216DAVISVP2,2013-11-26 14:57:00,
2013-11-26 09:58:00,31.5,25.4,29.23,West,266,4.0,10.0,78,0.00,,,0.00,WUHU216DAVISVP2,2013-11-26 14:58:00,
2013-11-26 10:01:00,31.5,25.4,29.23,West,266,5.0,10.0,78,0.00,,,0.00,WUHU216DAVISVP2,2013-11-26 15:01:00,
2013-11-26 10:02:00,31.5,25.4,29.23,West,266,1.0,10.0,78,0.00,,,0.00,WUHU216DAVISVP2,2013-11-26 15:02:00,
2013-11-26 10:04:00,31.5,25.4,29.24,West,266,5.0,10.0,78,0.00,,,0.00,WUHU216DAVISVP2,2013-11-26 15:04:00,
2013-11-26 10:06:00,31.6,25.5,29.24,West,266,1.0,9.0,78,0.00,,,0.00,WUHU216DAVISVP2,2013-11-26 15:06:00,
2013-11-26 10:07:00,31.7,25.6,29.25,West,266,5.0,9.0,78,0.00,,,0.00,WUHU216DAVISVP2,2013-11-26 15:07:00,
2013-11-26 10:09:00,31.7,25.6,29.25,WSW,244,7.0,11.0,78,0.00,,,0.00,WUHU216DAVISVP2,2013-11-26 15:09:00,
2013-11-26 10:11:00,31.7,25.3,29.25,WSW,249,5.0,11.0,77,0.00,,,0.00,WUHU216DAVISVP2,2013-11-26 15:11:00,
2013-11-26 10:12:00,31.8,25.4,29.26,WSW,245,5.0,11.0,77,0.00,,,0.00,WUHU216DAVISVP2,2013-11-26 15:12:00,
2013-11-26 10:13:00,31.8,25.4,29.26,WSW,245,2.0,11.0,77,0.00,,,0.00,WUHU216DAVISVP2,2013-11-26 15:13:00,
2013-11-26 10:14:00,31.8,25.4,29.26,WSW,237,2.0,11.0,77,0.00,,,0.00,WUHU216DAVISVP2,2013-11-26 15:14:00,
2013-11-26 10:16:00,31.9,25.5,29.26,SW,236,4.0,12.0,77,0.00,,,0.00,WUHU216DAVISVP2,2013-11-26 15:16:00,
2013-11-26 10:17:00,31.9,25.5,29.26,WSW,253,7.0,12.0,77,0.00,,,0.00,WUHU216DAVISVP2,2013-11-26 15:17:00,
2013-11-26 10:18:00,31.9,25.5,29.25,WSW,249,6.0,12.0,77,0.00,,,0.00,WUHU216DAVISVP2,2013-11-26 15:18:00,
2013-11-26 10:19:00,31.9,25.5,29.26,WSW,249,1.0,12.0,77,0.00,,,0.00,WUHU216DAVISVP2,2013-11-26 15:19:00,
2013-11-26 10:22:00,31.9,25.5,29.25,WSW,251,7.0,12.0,77,0.00,,,0.00,WUHU216DAVISVP2,2013-11-26 15:22:00,
2013-11-26 10:23:00,31.9,25.5,29.25,WSW,254,7.0,12.0,77,0.00,,,0.00,WUHU216DAVISVP2,2013-11-26 15:23:00,
2013-11-26 10:25:00,31.9,25.5,29.25,WSW,246,8.0,12.0,77,0.00,,,0.00,WUHU216DAVISVP2,2013-11-26 15:25:00,
2013-11-26 10:27:00,31.9,25.5,29.25,WSW,243,6.0,12.0,77,0.00,,,0.00,WUHU216DAVISVP2,2013-11-26 15:27:00,
2013-11-26 10:28:00,31.9,25.5,29.25,WSW,243,7.0,12.0,77,0.00,,,0.00,WUHU216DAVISVP2,2013-11-26 15:28:00,
2013-11-26 10:29:00,31.9,25.5,29.25,WSW,243,8.0,12.0,77,0.00,,,0.00,WUHU216DAVISVP2,2013-11-26 15:29:00,
2013-11-26 10:30:00,31.9,25.5,29.25,WSW,245,9.0,12.0,77,0.00,,,0.00,WUHU216DAVISVP2,2013-11-26 15:30:00,
2013-11-26 10:32:00,32.1,25.7,29.25,WSW,243,9.0,12.0,77,0.00,,,0.00,WUHU216DAVISVP2,2013-11-26 15:32:00,
2013-11-26 10:34:00,32.1,25.4,29.25,WSW,244,2.0,13.0,76,0.00,,,0.00,WUHU216DAVISVP2,2013-11-26 15:34:00,
2013-11-26 10:35:00,32.1,25.4,29.25,WSW,251,6.0,13.0,76,0.00,,,0.00,WUHU216DAVISVP2,2013-11-26 15:35:00,
2013-11-26 10:37:00,32.2,25.5,29.25,WSW,242,12.0,15.0,76,0.00,,,0.00,WUHU216DAVISVP2,2013-11-26 15:37:00,
2013-11-26 10:39:00,32.2,25.5,29.25,WSW,245,11.0,15.0,76,0.00,,,0.00,WUHU216DAVISVP2,2013-11-26 15:39:00,
2013-11-26 10:40:00,32.3,25.6,29.25,WSW,257,6.0,15.0,76,0.00,,,0.00,WUHU216DAVISVP2,2013-11-26 15:40:00,
2013-11-26 10:43:00,32.3,25.6,29.25,WSW,253,2.0,15.0,76,0.00,,,0.00,WUHU216DAVISVP2,2013-11-26 15:43:00,
2013-11-26 10:44:00,32.4,26.0,29.25,West,271,6.0,15.0,77,0.00,,,0.00,WUHU216DAVISVP2,2013-11-26 15:44:00,
2013-11-26 10:45:00,32.4,26.0,29.25,West,273,9.0,15.0,77,0.00,,,0.00,WUHU216DAVISVP2,2013-11-26 15:45:00,
2013-11-26 10:48:00,32.5,25.8,29.25,West,269,8.0,15.0,76,0.00,,,0.00,WUHU216DAVISVP2,2013-11-26 15:48:00,
2013-11-26 10:49:00,32.7,26.3,29.25,West,263,8.0,15.0,77,0.00,,,0.00,WUHU216DAVISVP2,2013-11-26 15:49:00,
2013-11-26 10:51:00,32.7,26.0,29.25,WSW,250,6.0,15.0,76,0.00,,,0.00,WUHU216DAVISVP2,2013-11-26 15:51:00,
2013-11-26 10:53:00,32.8,26.1,29.24,West,269,7.0,15.0,76,0.00,,,0.00,WUHU216DAVISVP2,2013-11-26 15:53:00,
2013-11-26 10:55:00,32.8,26.1,29.24,WSW,241,8.0,15.0,76,0.00,,,0.00,WUHU216DAVISVP2,2013-11-26 15:55:00,
2013-11-26 10:56:00,32.9,26.2,29.24,WSW,243,5.0,15.0,76,0.00,,,0.00,WUHU216DAVISVP2,2013-11-26 15:56:00,
2013-11-26 10:58:00,33.0,26.6,29.24,SW,235,3.0,11.0,77,0.00,,,0.00,WUHU216DAVISVP2,2013-11-26 15:58:00,
2013-11-26 11:00:00,33.1,26.7,29.24,WSW,237,3.0,11.0,77,0.00,,,0.00,WUHU216DAVISVP2,2013-11-26 16:00:00,
2013-11-26 11:01:00,33.2,26.8,29.24,SW,236,3.0,10.0,77,0.00,,,0.00,WUHU216DAVISVP2,2013-11-26 16:01:00,
2013-11-26 11:02:00,33.3,26.9,29.24,SW,234,0.0,10.0,77,0.00,,,0.00,WUHU216DAVISVP2,2013-11-26 16:02:00,
2013-11-26 11:03:00,33.4,27.0,29.24,WSW,243,7.0,10.0,77,0.00,,,0.00,WUHU216DAVISVP2,2013-11-26 16:03:00,
2013-11-26 11:05:00,33.4,26.7,29.23,WSW,240,6.0,10.0,76,0.00,,,0.00,WUHU216DAVISVP2,2013-11-26 16:05:00,
2013-11-26 11:07:00,33.4,26.7,29.23,WSW,244,9.0,12.0,76,0.00,,,0.00,WUHU216DAVISVP2,2013-11-26 16:07:00,
2013-11-26 11:08:00,33.2,26.2,29.23,WSW,247,7.0,13.0,75,0.00,,,0.00,WUHU216DAVISVP2,2013-11-26 16:08:00,
2013-11-26 11:11:00,33.1,26.1,29.23,SW,227,3.0,13.0,75,0.00,,,0.00,WUHU216DAVISVP2,2013-11-26 16:11:00,
2013-11-26 11:12:00,33.0,26.0,29.23,SW,228,0.0,13.0,75,0.00,,,0.00,WUHU216DAVISVP2,2013-11-26 16:12:00,
2013-11-26 11:13:00,33.1,26.4,29.23,SW,226,7.0,13.0,76,0.00,,,0.00,WUHU216DAVISVP2,2013-11-26 16:13:00,
2013-11-26 11:14:00,33.1,26.4,29.23,SW,228,5.0,13.0,76,0.00,,,0.00,WUHU216DAVISVP2,2013-11-26 16:14:00,
2013-11-26 11:16:00,33.3,26.9,29.23,WSW,242,2.0,13.0,77,0.00,,,0.00,WUHU216DAVISVP2,2013-11-26 16:16:00,
2013-11-26 11:17:00,33.4,26.7,29.23,SSW,206,0.0,13.0,76,0.00,,,0.00,WUHU216DAVISVP2,2013-11-26 16:17:00,
2013-11-26 11:19:00,33.5,26.8,29.22,SSW,203,0.0,13.0,76,0.00,,,0.00,WUHU216DAVISVP2,2013-11-26 16:19:00,
2013-11-26 11:21:00,33.5,26.8,29.22,SW,226,5.0,13.0,76,0.00,,,0.00,WUHU216DAVISVP2,2013-11-26 16:21:00,
2013-11-26 11:22:00,33.4,26.7,29.22,SW,233,0.0,13.0,76,0.00,,,0.00,WUHU216DAVISVP2,2013-11-26 16:22:00,
2013-11-26 11:23:00,33.3,26.3,29.22,SSW,203,0.0,13.0,75,0.00,,,0.00,WUHU216DAVISVP2,2013-11-26 16:23:00,
2013-11-26 11:24:00,33.2,26.2,29.22,SSW,208,1.0,13.0,75,0.00,,,0.00,WUHU216DAVISVP2,2013-11-26 16:24:00,
2013-11-26 11:26:00,33.1,26.4,29.23,SSW,210,0.0,11.0,76,0.00,,,0.00,WUHU216DAVISVP2,2013-11-26 16:26:00,
2013-11-26 11:27:00,33.1,26.4,29.23,SSW,206,0.0,11.0,76,0.00,,,0.00,WUHU216DAVISVP2,2013-11-26 16:27:00,
2013-11-26 11:28:00,33.1,26.4,29.23,SSW,199,2.0,14.0,76,0.00,,,0.00,WUHU216DAVISVP2,2013-11-26 16:28:00,
2013-11-26 11:29:00,33.1,26.4,29.23,South,185,5.0,14.0,76,0.00,,,0.00,WUHU216DAVISVP2,2013-11-26 16:29:00,
2013-11-26 11:31:00,33.1,26.4,29.23,SSW,208,3.0,14.0,76,0.00,,,0.00,WUHU216DAVISVP2,2013-11-26 16:31:00,
2013-11-26 11:32:00,33.1,26.4,29.23,WSW,239,6.0,14.0,76,0.00,,,0.00,WUHU216DAVISVP2,2013-11-26 16:32:00,
2013-11-26 11:33:00,33.1,26.4,29.23,SSW,200,5.0,14.0,76,0.00,,,0.00,WUHU216DAVISVP2,2013-11-26 16:33:00,
2013-11-26 11:34:00,33.0,26.3,29.23,SW,222,1.0,14.0,76,0.00,,,0.00,WUHU216DAVISVP2,2013-11-26 16:34:00,
2013-11-26 11:35:00,33.0,26.3,29.23,South,188,7.0,14.0,76,0.00,,,0.00,WUHU216DAVISVP2,2013-11-26 16:35:00,
2013-11-26 11:37:00,32.9,25.9,29.23,WSW,239,7.0,14.0,75,0.00,,,0.00,WUHU216DAVISVP2,2013-11-26 16:37:00,
2013-11-26 11:39:00,33.0,26.3,29.23,WSW,237,6.0,14.0,76,0.00,,,0.00,WUHU216DAVISVP2,2013-11-26 16:39:00,
2013-11-26 11:40:00,33.0,26.3,29.23,WSW,250,12.0,14.0,76,0.00,,,0.00,WUHU216DAVISVP2,2013-11-26 16:40:00,
2013-11-26 11:42:00,33.0,26.3,29.23,WSW,246,8.0,14.0,76,0.00,,,0.00,WUHU216DAVISVP2,2013-11-26 16:42:00,
2013-11-26 11:43:00,33.0,26.3,29.23,WSW,258,6.0,14.0,76,0.00,,,0.00,WUHU216DAVISVP2,2013-11-26 16:43:00,
2013-11-26 11:44:00,33.1,26.4,29.23,WSW,246,6.0,14.0,76,0.00,,,0.00,WUHU216DAVISVP2,2013-11-26 16:44:00,
2013-11-26 11:45:00,33.1,26.4,29.23,West,261,8.0,14.0,76,0.00,,,0.00,WUHU216DAVISVP2,2013-11-26 16:45:00,
2013-11-26 11:47:00,33.2,26.5,29.23,WSW,256,7.0,13.0,76,0.00,,,0.00,WUHU216DAVISVP2,2013-11-26 16:47:00,
2013-11-26 11:48:00,33.1,26.1,29.23,West,274,7.0,13.0,75,0.00,,,0.00,WUHU216DAVISVP2,2013-11-26 16:48:00,
2013-11-26 11:49:00,33.2,26.2,29.22,West,260,7.0,13.0,75,0.00,,,0.00,WUHU216DAVISVP2,2013-11-26 16:49:00,
2013-11-26 11:50:00,33.2,26.2,29.22,WSW,250,6.0,13.0,75,0.00,,,0.00,WUHU216DAVISVP2,2013-11-26 16:50:00,
2013-11-26 11:52:00,33.1,26.1,29.21,WSW,246,11.0,12.0,75,0.00,,,0.00,WUHU216DAVISVP2,2013-11-26 16:52:00,
2013-11-26 11:53:00,33.1,26.1,29.22,SW,226,0.0,12.0,75,0.00,,,0.00,WUHU216DAVISVP2,2013-11-26 16:53:00,
2013-11-26 11:54:00,33.1,26.1,29.21,WSW,256,3.0,12.0,75,0.00,,,0.00,WUHU216DAVISVP2,2013-11-26 16:54:00,
2013-11-26 11:55:00,33.1,26.1,29.21,WSW,240,11.0,12.0,75,0.00,,,0.00,WUHU216DAVISVP2,2013-11-26 16:55:00,
2013-11-26 11:56:00,33.2,26.2,29.21,SSW,198,4.0,13.0,75,0.00,,,0.00,WUHU216DAVISVP2,2013-11-26 16:56:00,
2013-11-26 11:58:00,33.2,26.2,29.22,SW,219,4.0,13.0,75,0.00,,,0.00,WUHU216DAVISVP2,2013-11-26 16:58:00,
2013-11-26 11:59:00,33.2,26.2,29.22,SW,216,1.0,13.0,75,0.00,,,0.00,WUHU216DAVISVP2,2013-11-26 16:59:00,
2013-11-26 12:00:00,33.2,26.2,29.22,SW,216,0.0,13.0,75,0.00,,,0.00,WUHU216DAVISVP2,2013-11-26 17:00:00,
2013-11-26 12:01:00,33.3,26.3,29.22,SW,215,2.0,13.0,75,0.00,,,0.00,WUHU216DAVISVP2,2013-11-26 17:01:00,
2013-11-26 12:03:00,33.4,26.4,29.22,SW,214,0.0,13.0,75,0.00,,,0.00,WUHU216DAVISVP2,2013-11-26 17:03:00,
2013-11-26 12:05:00,33.6,26.9,29.22,SSW,201,1.0,13.0,76,0.00,,,0.00,WUHU216DAVISVP2,2013-11-26 17:05:00,
2013-11-26 12:06:00,33.7,26.7,29.22,South,190,1.0,13.0,75,0.00,,,0.00,WUHU216DAVISVP2,2013-11-26 17:06:00,
2013-11-26 12:08:00,33.6,26.6,29.22,SSW,198,1.0,13.0,75,0.00,,,0.00,WUHU216DAVISVP2,2013-11-26 17:08:00,
2013-11-26 12:10:00,33.6,26.6,29.21,SSW,206,1.0,13.0,75,0.00,,,0.00,WUHU216DAVISVP2,2013-11-26 17:10:00,
2013-11-26 12:11:00,33.6,26.6,29.21,South,187,2.0,13.0,75,0.00,,,0.00,WUHU216DAVISVP2,2013-11-26 17:11:00,
2013-11-26 12:13:00,34.1,27.4,29.20,SSW,199,1.0,13.0,76,0.00,,,0.00,WUHU216DAVISVP2,2013-11-26 17:13:00,
2013-11-26 12:16:00,34.4,27.3,29.20,SW,234,3.0,13.0,75,0.00,,,0.00,WUHU216DAVISVP2,2013-11-26 17:16:00,
2013-11-26 12:19:00,34.7,27.0,29.20,WSW,247,6.0,13.0,73,0.00,,,0.00,WUHU216DAVISVP2,2013-11-26 17:19:00,
2013-11-26 12:21:00,34.7,27.3,29.21,WSW,239,9.0,13.0,74,0.00,,,0.00,WUHU216DAVISVP2,2013-11-26 17:21:00,
2013-11-26 12:22:00,34.6,26.9,29.21,SSW,199,0.0,13.0,73,0.00,,,0.00,WUHU216DAVISVP2,2013-11-26 17:22:00,
2013-11-26 12:24:00,34.6,27.2,29.21,WSW,243,7.0,13.0,74,0.00,,,0.00,WUHU216DAVISVP2,2013-11-26 17:24:00,
2013-11-26 12:26:00,34.7,27.3,29.21,West,264,5.0,13.0,74,0.00,,,0.00,WUHU216DAVISVP2,2013-11-26 17:26:00,
2013-11-26 12:27:00,34.7,27.3,29.21,SW,224,1.0,13.0,74,0.00,,,0.00,WUHU216DAVISVP2,2013-11-26 17:27:00,
2013-11-26 12:29:00,35.1,27.7,29.20,SW,220,6.0,13.0,74,0.00,,,0.00,WUHU216DAVISVP2,2013-11-26 17:29:00,
2013-11-26 12:31:00,35.1,27.4,29.20,WSW,245,9.0,14.0,73,0.00,,,0.00,WUHU216DAVISVP2,2013-11-26 17:31:00,
2013-11-26 12:32:00,35.0,27.3,29.20,WSW,251,6.0,14.0,73,0.00,,,0.00,WUHU216DAVISVP2,2013-11-26 17:32:00,
2013-11-26 12:34:00,34.8,27.1,29.20,SW,214,2.0,14.0,73,0.00,,,0.00,WUHU216DAVISVP2,2013-11-26 17:34:00,
2013-11-26 12:36:00,34.8,27.1,29.20,WSW,247,4.0,14.0,73,0.00,,,0.00,WUHU216DAVISVP2,2013-11-26 17:36:00,
2013-11-26 12:37:00,34.8,27.4,29.20,SSW,200,1.0,14.0,74,0.00,,,0.00,WUHU216DAVISVP2,2013-11-26 17:37:00,
2013-11-26 12:38:00,34.9,27.5,29.20,SW,230,5.0,14.0,74,0.00,,,0.00,WUHU216DAVISVP2,2013-11-26 17:38:00,
2013-11-26 12:40:00,34.9,27.2,29.20,SSW,212,0.0,14.0,73,0.00,,,0.00,WUHU216DAVISVP2,2013-11-26 17:40:00,
2013-11-26 12:41:00,35.0,27.2,29.20,South,191,4.0,14.0,73,0.00,,,0.00,WUHU216DAVISVP2,2013-11-26 17:41:00,
2013-11-26 12:42:00,35.0,27.5,29.20,SW,224,2.0,14.0,74,0.00,,,0.00,WUHU216DAVISVP2,2013-11-26 17:42:00,
2013-11-26 12:43:00,35.0,27.5,29.20,SSW,207,1.0,14.0,74,0.00,,,0.00,WUHU216DAVISVP2,2013-11-26 17:43:00,
2013-11-26 12:45:00,34.9,27.1,29.20,WSW,237,4.0,14.0,73,0.00,,,0.00,WUHU216DAVISVP2,2013-11-26 17:45:00,
2013-11-26 12:46:00,35.0,27.5,29.20,West,262,9.0,14.0,74,0.00,,,0.00,WUHU216DAVISVP2,2013-11-26 17:46:00,
2013-11-26 12:48:00,34.9,27.1,29.20,WSW,244,8.0,14.0,73,0.00,,,0.00,WUHU216DAVISVP2,2013-11-26 17:48:00,
2013-11-26 12:50:00,34.7,26.9,29.20,WSW,254,6.0,11.0,73,0.00,,,0.00,WUHU216DAVISVP2,2013-11-26 17:50:00,
2013-11-26 12:51:00,34.7,26.9,29.20,WSW,251,9.0,11.0,73,0.00,,,0.00,WUHU216DAVISVP2,2013-11-26 17:51:00,
2013-11-26 12:53:00,34.7,26.9,29.19,WSW,257,6.0,11.0,73,0.00,,,0.00,WUHU216DAVISVP2,2013-11-26 17:53:00,
2013-11-26 12:54:00,34.7,26.9,29.19,WSW,256,6.0,11.0,73,0.00,,,0.00,WUHU216DAVISVP2,2013-11-26 17:54:00,
2013-11-26 12:55:00,34.7,26.9,29.19,WSW,252,8.0,11.0,73,0.00,,,0.00,WUHU216DAVISVP2,2013-11-26 17:55:00,
2013-11-26 12:57:00,34.6,26.8,29.19,WSW,247,8.0,11.0,73,0.00,,,0.00,WUHU216DAVISVP2,2013-11-26 17:57:00,
2013-11-26 12:58:00,34.6,26.8,29.18,WSW,246,6.0,11.0,73,0.00,,,0.00,WUHU216DAVISVP2,2013-11-26 17:58:00,
2013-11-26 12:59:00,34.6,26.8,29.18,WSW,246,5.0,11.0,73,0.00,,,0.00,WUHU216DAVISVP2,2013-11-26 17:59:00,
2013-11-26 13:00:00,34.6,27.2,29.18,WSW,242,7.0,11.0,74,0.00,,,0.00,WUHU216DAVISVP2,2013-11-26 18:00:00,
2013-11-26 13:02:00,34.6,27.2,29.18,SW,228,5.0,11.0,74,0.00,,,0.00,WUHU216DAVISVP2,2013-11-26 18:02:00,
2013-11-26 13:03:00,34.6,27.2,29.18,WSW,252,5.0,11.0,74,0.00,,,0.00,WUHU216DAVISVP2,2013-11-26 18:03:00,
2013-11-26 13:04:00,34.6,27.2,29.18,WSW,237,4.0,11.0,74,0.00,,,0.00,WUHU216DAVISVP2,2013-11-26 18:04:00,
2013-11-26 13:06:00,34.8,27.4,29.17,WSW,253,5.0,11.0,74,0.00,,,0.00,WUHU216DAVISVP2,2013-11-26 18:06:00,
2013-11-26 13:07:00,34.8,27.4,29.17,WSW,247,5.0,11.0,74,0.00,,,0.00,WUHU216DAVISVP2,2013-11-26 18:07:00,
2013-11-26 13:08:00,34.8,27.4,29.17,West,265,6.0,11.0,74,0.00,,,0.00,WUHU216DAVISVP2,2013-11-26 18:08:00,
2013-11-26 13:09:00,34.9,27.5,29.17,West,263,5.0,11.0,74,0.00,,,0.00,WUHU216DAVISVP2,2013-11-26 18:09:00,
2013-11-26 13:10:00,35.0,27.5,29.17,West,266,0.0,11.0,74,0.00,,,0.00,WUHU216DAVISVP2,2013-11-26 18:10:00,
2013-11-26 13:11:00,35.1,28.0,29.17,West,270,6.0,11.0,75,0.00,,,0.00,WUHU216DAVISVP2,2013-11-26 18:11:00,
2013-11-26 13:12:00,35.2,28.1,29.17,West,268,7.0,11.0,75,0.00,,,0.00,WUHU216DAVISVP2,2013-11-26 18:12:00,
2013-11-26 13:13:00,35.3,27.8,29.17,West,276,1.0,11.0,74,0.00,,,0.00,WUHU216DAVISVP2,2013-11-26 18:13:00,
2013-11-26 13:14:00,35.4,27.9,29.16,West,277,1.0,11.0,74,0.00,,,0.00,WUHU216DAVISVP2,2013-11-26 18:14:00,
2013-11-26 13:16:00,35.6,28.1,29.16,WNW,290,7.0,10.0,74,0.00,,,0.00,WUHU216DAVISVP2,2013-11-26 18:16:00,
2013-11-26 13:17:00,35.7,28.2,29.16,WNW,287,7.0,10.0,74,0.00,,,0.00,WUHU216DAVISVP2,2013-11-26 18:17:00,
2013-11-26 13:19:00,35.7,27.9,29.16,West,267,6.0,9.0,73,0.00,,,0.00,WUHU216DAVISVP2,2013-11-26 18:19:00,
2013-11-26 13:20:00,35.7,27.6,29.16,WSW,250,4.0,9.0,72,0.00,,,0.00,WUHU216DAVISVP2,2013-11-26 18:20:00,
2013-11-26 13:21:00,35.6,27.5,29.16,WSW,250,5.0,9.0,72,0.00,,,0.00,WUHU216DAVISVP2,2013-11-26 18:21:00,
2013-11-26 13:22:00,35.6,27.8,29.16,West,270,7.0,9.0,73,0.00,,,0.00,WUHU216DAVISVP2,2013-11-26 18:22:00,
2013-11-26 13:24:00,35.6,27.8,29.16,West,267,2.0,9.0,73,0.01,,,0.02,WUHU216DAVISVP2,2013-11-26 18:24:00,
2013-11-26 13:25:00,35.6,27.8,29.16,West,267,1.0,9.0,73,0.02,,,0.02,WUHU216DAVISVP2,2013-11-26 18:25:00,
2013-11-26 13:26:00,35.6,27.8,29.16,West,267,0.0,9.0,73,0.02,,,0.02,WUHU216DAVISVP2,2013-11-26 18:26:00,
2013-11-26 13:27:00,35.7,27.9,29.16,West,267,0.0,9.0,73,0.02,,,0.02,WUHU216DAVISVP2,2013-11-26 18:27:00,
2013-11-26 13:29:00,35.8,28.0,29.16,West,259,8.0,9.0,73,0.02,,,0.02,WUHU216DAVISVP2,2013-11-26 18:29:00,
2013-11-26 13:30:00,35.7,27.9,29.16,West,268,8.0,9.0,73,0.02,,,0.02,WUHU216DAVISVP2,2013-11-26 18:30:00,
2013-11-26 13:32:00,35.7,27.9,29.16,West,260,9.0,10.0,73,0.02,,,0.02,WUHU216DAVISVP2,2013-11-26 18:32:00,
2013-11-26 13:34:00,35.8,28.0,29.16,West,260,0.0,10.0,73,0.02,,,0.02,WUHU216DAVISVP2,2013-11-26 18:34:00,
2013-11-26 13:35:00,35.8,28.0,29.16,West,260,0.0,10.0,73,0.02,,,0.02,WUHU216DAVISVP2,2013-11-26 18:35:00,
2013-11-26 13:37:00,35.9,28.1,29.16,West,260,0.0,10.0,73,0.02,,,0.02,WUHU216DAVISVP2,2013-11-26 18:37:00,
2013-11-26 13:39:00,35.9,28.1,29.16,West,260,4.0,10.0,73,0.02,,,0.02,WUHU216DAVISVP2,2013-11-26 18:39:00,
2013-11-26 13:40:00,35.9,28.1,29.16,West,260,4.0,10.0,73,0.02,,,0.02,WUHU216DAVISVP2,2013-11-26 18:40:00,
2013-11-26 13:42:00,35.8,28.0,29.17,West,260,0.0,10.0,73,0.02,,,0.02,WUHU216DAVISVP2,2013-11-26 18:42:00,
2013-11-26 13:43:00,35.9,28.1,29.17,West,265,7.0,10.0,73,0.02,,,0.02,WUHU216DAVISVP2,2013-11-26 18:43:00,
2013-11-26 13:45:00,35.9,28.1,29.16,West,278,6.0,10.0,73,0.02,,,0.02,WUHU216DAVISVP2,2013-11-26 18:45:00,
2013-11-26 13:47:00,36.0,28.2,29.16,WNW,302,5.0,10.0,73,0.02,,,0.02,WUHU216DAVISVP2,2013-11-26 18:47:00,
2013-11-26 13:48:00,36.0,28.2,29.16,West,277,7.0,10.0,73,0.02,,,0.02,WUHU216DAVISVP2,2013-11-26 18:48:00,
2013-11-26 13:50:00,35.8,28.0,29.17,WNW,296,7.0,9.0,73,0.03,,,0.03,WUHU216DAVISVP2,2013-11-26 18:50:00,
2013-11-26 13:52:00,35.7,27.9,29.17,WNW,287,5.0,9.0,73,0.03,,,0.03,WUHU216DAVISVP2,2013-11-26 18:52:00,
2013-11-26 13:53:00,35.7,27.9,29.17,WNW,287,3.0,9.0,73,0.03,,,0.03,WUHU216DAVISVP2,2013-11-26 18:53:00,
2013-11-26 13:55:00,35.7,27.9,29.16,WNW,295,6.0,9.0,73,0.03,,,0.03,WUHU216DAVISVP2,2013-11-26 18:55:00,
2013-11-26 13:57:00,35.7,28.2,29.16,WNW,295,0.0,9.0,74,0.03,,,0.03,WUHU216DAVISVP2,2013-11-26 18:57:00,
2013-11-26 13:58:00,35.7,28.2,29.16,WNW,295,0.0,9.0,74,0.03,,,0.03,WUHU216DAVISVP2,2013-11-26 18:58:00,
2013-11-26 14:00:00,35.7,27.9,29.16,WNW,295,5.0,9.0,73,0.03,,,0.03,WUHU216DAVISVP2,2013-11-26 19:00:00,
2013-11-26 14:01:00,35.6,27.8,29.16,WNW,295,0.0,9.0,73,0.03,,,0.03,WUHU216DAVISVP2,2013-11-26 19:01:00,
2013-11-26 14:02:00,35.6,28.1,29.16,WNW,295,4.0,9.0,74,0.03,,,0.03,WUHU216DAVISVP2,2013-11-26 19:02:00,
2013-11-26 14:03:00,35.6,28.1,29.16,WNW,295,4.0,9.0,74,0.03,,,0.03,WUHU216DAVISVP2,2013-11-26 19:03:00,
2013-11-26 14:05:00,35.6,28.1,29.16,WNW,295,5.0,9.0,74,0.03,,,0.03,WUHU216DAVISVP2,2013-11-26 19:05:00,
2013-11-26 14:06:00,35.6,28.1,29.16,West,266,5.0,9.0,74,0.03,,,0.03,WUHU216DAVISVP2,2013-11-26 19:06:00,
2013-11-26 14:07:00,35.7,28.2,29.16,West,280,7.0,9.0,74,0.03,,,0.03,WUHU216DAVISVP2,2013-11-26 19:07:00,
2013-11-26 14:08:00,35.7,28.2,29.16,WNW,287,6.0,9.0,74,0.03,,,0.03,WUHU216DAVISVP2,2013-11-26 19:08:00,
2013-11-26 14:10:00,35.7,28.2,29.16,WNW,287,6.0,9.0,74,0.03,,,0.03,WUHU216DAVISVP2,2013-11-26 19:10:00,
2013-11-26 14:11:00,35.7,28.2,29.16,WNW,287,1.0,9.0,74,0.03,,,0.03,WUHU216DAVISVP2,2013-11-26 19:11:00,
2013-11-26 14:12:00,35.8,28.3,29.16,WNW,287,0.0,9.0,74,0.03,,,0.03,WUHU216DAVISVP2,2013-11-26 19:12:00,
2013-11-26 14:13:00,35.8,28.3,29.16,WNW,287,1.0,9.0,74,0.03,,,0.03,WUHU216DAVISVP2,2013-11-26 19:13:00,
2013-11-26 14:14:00,35.8,28.3,29.16,WNW,287,0.0,9.0,74,0.03,,,0.03,WUHU216DAVISVP2,2013-11-26 19:14:00,
2013-11-26 14:16:00,35.9,28.4,29.16,WNW,287,0.0,9.0,74,0.03,,,0.03,WUHU216DAVISVP2,2013-11-26 19:16:00,
2013-11-26 14:17:00,35.9,28.4,29.16,WNW,287,1.0,9.0,74,0.03,,,0.03,WUHU216DAVISVP2,2013-11-26 19:17:00,
2013-11-26 14:18:00,35.9,28.4,29.16,WNW,287,1.0,9.0,74,0.03,,,0.03,WUHU216DAVISVP2,2013-11-26 19:18:00,
2013-11-26 14:19:00,35.9,28.4,29.16,WNW,300,3.0,9.0,74,0.03,,,0.03,WUHU216DAVISVP2,2013-11-26 19:19:00,
2013-11-26 14:22:00,35.9,28.4,29.16,WNW,299,1.0,9.0,74,0.03,,,0.03,WUHU216DAVISVP2,2013-11-26 19:22:00,
2013-11-26 14:23:00,35.9,28.7,29.16,WNW,299,1.0,9.0,75,0.02,,,0.03,WUHU216DAVISVP2,2013-11-26 19:23:00,
2013-11-26 14:24:00,35.9,28.7,29.16,WNW,299,1.0,9.0,75,0.01,,,0.03,WUHU216DAVISVP2,2013-11-26 19:24:00,
2013-11-26 14:25:00,35.9,28.7,29.16,WNW,299,6.0,9.0,75,0.01,,,0.03,WUHU216DAVISVP2,2013-11-26 19:25:00,
2013-11-26 14:27:00,35.9,28.4,29.16,WNW,299,4.0,8.0,74,0.01,,,0.03,WUHU216DAVISVP2,2013-11-26 19:27:00,
2013-11-26 14:28:00,35.9,28.4,29.16,West,268,5.0,8.0,74,0.01,,,0.03,WUHU216DAVISVP2,2013-11-26 19:28:00,
2013-11-26 14:29:00,35.8,28.3,29.16,West,269,4.0,8.0,74,0.01,,,0.03,WUHU216DAVISVP2,2013-11-26 19:29:00,
2013-11-26 14:30:00,35.8,28.3,29.16,West,269,7.0,8.0,74,0.01,,,0.03,WUHU216DAVISVP2,2013-11-26 19:30:00,
2013-11-26 14:32:00,35.8,28.3,29.16,WNW,288,6.0,8.0,74,0.01,,,0.03,WUHU216DAVISVP2,2013-11-26 19:32:00,
2013-11-26 14:33:00,35.7,28.2,29.16,WNW,289,5.0,8.0,74,0.01,,,0.03,WUHU216DAVISVP2,2013-11-26 19:33:00,
2013-11-26 14:34:00,35.7,28.2,29.15,WNW,291,5.0,8.0,74,0.01,,,0.03,WUHU216DAVISVP2,2013-11-26 19:34:00,
2013-11-26 14:35:00,35.7,28.2,29.15,WNW,291,3.0,8.0,74,0.01,,,0.03,WUHU216DAVISVP2,2013-11-26 19:35:00,
2013-11-26 14:37:00,35.8,28.6,29.15,WNW,291,4.0,8.0,75,0.01,,,0.03,WUHU216DAVISVP2,2013-11-26 19:37:00,
2013-11-26 14:39:00,35.8,28.6,29.15,WNW,299,5.0,8.0,75,0.01,,,0.03,WUHU216DAVISVP2,2013-11-26 19:39:00,
2013-11-26 14:40:00,35.8,28.6,29.15,WNW,285,5.0,8.0,75,0.01,,,0.03,WUHU216DAVISVP2,2013-11-26 19:40:00,
2013-11-26 14:42:00,35.8,28.6,29.15,WNW,285,2.0,8.0,75,0.01,,,0.03,WUHU216DAVISVP2,2013-11-26 19:42:00,
2013-11-26 14:43:00,35.8,28.6,29.15,WNW,285,2.0,8.0,75,0.01,,,0.03,WUHU216DAVISVP2,2013-11-26 19:43:00,
2013-11-26 14:44:00,35.8,28.6,29.15,WNW,285,5.0,8.0,75,0.01,,,0.03,WUHU216DAVISVP2,2013-11-26 19:44:00,
2013-11-26 14:45:00,35.9,28.7,29.15,WNW,285,6.0,8.0,75,0.01,,,0.03,WUHU216DAVISVP2,2013-11-26 19:45:00,
2013-11-26 14:47:00,35.8,28.6,29.15,West,265,0.0,8.0,75,0.01,,,0.03,WUHU216DAVISVP2,2013-11-26 19:47:00,
2013-11-26 14:48:00,35.9,28.7,29.15,West,265,4.0,8.0,75,0.00,,,0.03,WUHU216DAVISVP2,2013-11-26 19:48:00,
2013-11-26 14:49:00,35.9,28.7,29.15,WNW,293,5.0,8.0,75,0.00,,,0.03,WUHU216DAVISVP2,2013-11-26 19:49:00,
2013-11-26 14:50:00,35.9,28.7,29.15,WNW,293,5.0,8.0,75,0.00,,,0.03,WUHU216DAVISVP2,2013-11-26 19:50:00,
2013-11-26 14:53:00,36.0,28.8,29.15,WNW,301,7.0,8.0,75,0.00,,,0.03,WUHU216DAVISVP2,2013-11-26 19:53:00,
2013-11-26 14:54:00,36.0,28.8,29.15,WNW,295,6.0,8.0,75,0.00,,,0.03,WUHU216DAVISVP2,2013-11-26 19:54:00,
2013-11-26 14:55:00,36.0,28.8,29.15,West,276,5.0,8.0,75,0.00,,,0.03,WUHU216DAVISVP2,2013-11-26 19:55:00,
2013-11-26 14:58:00,36.0,28.8,29.14,NW,313,7.0,10.0,75,0.00,,,0.03,WUHU216DAVISVP2,2013-11-26 19:58:00,
2013-11-26 15:00:00,35.9,29.1,29.14,NW,318,8.0,11.0,76,0.00,,,0.03,WUHU216DAVISVP2,2013-11-26 20:00:00,
2013-11-26 15:01:00,35.9,29.1,29.14,WNW,299,6.0,11.0,76,0.00,,,0.03,WUHU216DAVISVP2,2013-11-26 20:01:00,
2013-11-26 15:03:00,35.9,29.1,29.14,NW,314,7.0,11.0,76,0.00,,,0.03,WUHU216DAVISVP2,2013-11-26 20:03:00,
2013-11-26 15:05:00,35.9,29.4,29.14,NW,310,6.0,11.0,77,0.00,,,0.03,WUHU216DAVISVP2,2013-11-26 20:05:00,
2013-11-26 15:06:00,35.9,29.4,29.14,WNW,303,6.0,11.0,77,0.00,,,0.03,WUHU216DAVISVP2,2013-11-26 20:06:00,
2013-11-26 15:09:00,35.8,29.3,29.14,NW,320,7.0,11.0,77,0.00,,,0.03,WUHU216DAVISVP2,2013-11-26 20:09:00,
2013-11-26 15:10:00,35.7,28.9,29.14,NW,311,6.0,11.0,76,0.00,,,0.03,WUHU216DAVISVP2,2013-11-26 20:10:00,
2013-11-26 15:11:00,35.7,29.2,29.14,NW,324,6.0,11.0,77,0.00,,,0.03,WUHU216DAVISVP2,2013-11-26 20:11:00,
2013-11-26 15:14:00,35.6,29.1,29.14,WNW,296,7.0,11.0,77,0.00,,,0.03,WUHU216DAVISVP2,2013-11-26 20:14:00,
2013-11-26 15:16:00,35.6,29.1,29.14,NW,314,7.0,11.0,77,0.00,,,0.03,WUHU216DAVISVP2,2013-11-26 20:16:00,
2013-11-26 15:17:00,35.6,29.1,29.14,NW,310,2.0,11.0,77,0.00,,,0.03,WUHU216DAVISVP2,2013-11-26 20:17:00,
2013-11-26 15:18:00,35.5,29.0,29.14,NW,312,2.0,11.0,77,0.00,,,0.03,WUHU216DAVISVP2,2013-11-26 20:18:00,
2013-11-26 15:19:00,35.5,29.0,29.13,WNW,301,8.0,11.0,77,0.00,,,0.03,WUHU216DAVISVP2,2013-11-26 20:19:00,
2013-11-26 15:21:00,35.5,29.0,29.13,NW,326,6.0,11.0,77,0.00,,,0.03,WUHU216DAVISVP2,2013-11-26 20:21:00,
2013-11-26 15:22:00,35.4,28.9,29.13,NW,308,7.0,11.0,77,0.00,,,0.03,WUHU216DAVISVP2,2013-11-26 20:22:00,
2013-11-26 15:23:00,35.4,28.9,29.13,WNW,295,6.0,11.0,77,0.00,,,0.03,WUHU216DAVISVP2,2013-11-26 20:23:00,
2013-11-26 15:24:00,35.4,28.9,29.14,WNW,293,8.0,11.0,77,0.00,,,0.03,WUHU216DAVISVP2,2013-11-26 20:24:00,
2013-11-26 15:26:00,35.3,28.8,29.14,WNW,298,7.0,11.0,77,0.00,,,0.03,WUHU216DAVISVP2,2013-11-26 20:26:00,
2013-11-26 15:27:00,35.3,28.8,29.14,WNW,300,6.0,11.0,77,0.00,,,0.03,WUHU216DAVISVP2,2013-11-26 20:27:00,
2013-11-26 15:28:00,35.3,28.8,29.14,WNW,283,6.0,11.0,77,0.00,,,0.03,WUHU216DAVISVP2,2013-11-26 20:28:00,
2013-11-26 15:29:00,35.3,28.8,29.13,WNW,293,6.0,11.0,77,0.00,,,0.03,WUHU216DAVISVP2,2013-11-26 20:29:00,
2013-11-26 15:31:00,35.3,28.8,29.13,NW,307,5.0,11.0,77,0.00,,,0.03,WUHU216DAVISVP2,2013-11-26 20:31:00,
2013-11-26 15:32:00,35.3,29.1,29.13,NW,308,5.0,11.0,78,0.00,,,0.03,WUHU216DAVISVP2,2013-11-26 20:32:00,
2013-11-26 15:33:00,35.3,29.1,29.13,WNW,287,5.0,10.0,78,0.00,,,0.03,WUHU216DAVISVP2,2013-11-26 20:33:00,
2013-11-26 15:35:00,35.2,29.0,29.13,WNW,295,5.0,10.0,78,0.00,,,0.03,WUHU216DAVISVP2,2013-11-26 20:35:00,
2013-11-26 15:36:00,35.3,29.1,29.13,WNW,298,3.0,10.0,78,0.00,,,0.03,WUHU216DAVISVP2,2013-11-26 20:36:00,
2013-11-26 15:37:00,35.3,29.1,29.13,WNW,298,5.0,10.0,78,0.00,,,0.03,WUHU216DAVISVP2,2013-11-26 20:37:00,
2013-11-26 15:38:00,35.3,29.1,29.13,WNW,298,6.0,10.0,78,0.00,,,0.03,WUHU216DAVISVP2,2013-11-26 20:38:00,
2013-11-26 15:40:00,35.3,29.1,29.13,WNW,298,0.0,10.0,78,0.00,,,0.03,WUHU216DAVISVP2,2013-11-26 20:40:00,
2013-11-26 15:41:00,35.3,29.1,29.14,WNW,298,2.0,10.0,78,0.00,,,0.03,WUHU216DAVISVP2,2013-11-26 20:41:00,
2013-11-26 15:42:00,35.3,29.1,29.14,WNW,298,7.0,10.0,78,0.00,,,0.03,WUHU216DAVISVP2,2013-11-26 20:42:00,
2013-11-26 15:43:00,35.3,29.1,29.14,WNW,298,6.0,10.0,78,0.00,,,0.03,WUHU216DAVISVP2,2013-11-26 20:43:00,
2013-11-26 15:45:00,35.3,29.1,29.14,WNW,299,7.0,10.0,78,0.00,,,0.03,WUHU216DAVISVP2,2013-11-26 20:45:00,
2013-11-26 15:47:00,35.3,29.1,29.14,NW,304,3.0,8.0,78,0.00,,,0.03,WUHU216DAVISVP2,2013-11-26 20:47:00,
2013-11-26 15:48:00,35.2,29.0,29.14,NW,304,2.0,8.0,78,0.00,,,0.03,WUHU216DAVISVP2,2013-11-26 20:48:00,
2013-11-26 15:49:00,35.3,29.1,29.14,NW,304,2.0,8.0,78,0.00,,,0.03,WUHU216DAVISVP2,2013-11-26 20:49:00,
2013-11-26 15:50:00,35.2,29.0,29.14,NW,304,2.0,8.0,78,0.00,,,0.03,WUHU216DAVISVP2,2013-11-26 20:50:00,
2013-11-26 15:52:00,35.2,29.0,29.14,NW,304,5.0,8.0,78,0.00,,,0.03,WUHU216DAVISVP2,2013-11-26 20:52:00,
2013-11-26 15:53:00,35.3,29.1,29.14,WNW,289,6.0,8.0,78,0.00,,,0.03,WUHU216DAVISVP2,2013-11-26 20:53:00,
2013-11-26 15:54:00,35.3,29.1,29.14,WNW,289,4.0,8.0,78,0.00,,,0.03,WUHU216DAVISVP2,2013-11-26 20:54:00,
2013-11-26 15:55:00,35.3,29.2,29.14,WNW,295,1.0,8.0,78,0.00,,,0.03,WUHU216DAVISVP2,2013-11-26 20:55:00,
2013-11-26 15:57:00,35.3,29.2,29.14,WNW,295,6.0,8.0,78,0.00,,,0.03,WUHU216DAVISVP2,2013-11-26 20:57:00,
2013-11-26 15:59:00,35.3,29.2,29.14,NW,314,4.0,8.0,78,0.00,,,0.03,WUHU216DAVISVP2,2013-11-26 20:59:00,
2013-11-26 16:00:00,35.2,29.1,29.14,NW,308,7.0,8.0,78,0.00,,,0.03,WUHU216DAVISVP2,2013-11-26 21:00:00,
2013-11-26 16:02:00,35.2,29.1,29.14,NW,312,6.0,8.0,78,0.00,,,0.03,WUHU216DAVISVP2,2013-11-26 21:02:00,
2013-11-26 16:04:00,35.2,29.1,29.14,NNW,337,5.0,9.0,78,0.00,,,0.03,WUHU216DAVISVP2,2013-11-26 21:04:00,
2013-11-26 16:05:00,35.2,29.1,29.14,NW,311,6.0,9.0,78,0.00,,,0.03,WUHU216DAVISVP2,2013-11-26 21:05:00,
2013-11-26 16:06:00,35.1,29.0,29.14,NW,308,8.0,9.0,78,0.00,,,0.03,WUHU216DAVISVP2,2013-11-26 21:06:00,
2013-11-26 16:07:00,35.1,29.0,29.14,NW,324,5.0,9.0,78,0.00,,,0.03,WUHU216DAVISVP2,2013-11-26 21:07:00,
2013-11-26 16:08:00,35.1,29.0,29.14,NNW,332,4.0,9.0,78,0.00,,,0.03,WUHU216DAVISVP2,2013-11-26 21:08:00,
2013-11-26 16:09:00,35.1,29.0,29.14,WNW,297,4.0,9.0,78,0.00,,,0.03,WUHU216DAVISVP2,2013-11-26 21:09:00,
2013-11-26 16:10:00,35.1,29.0,29.14,NNW,330,7.0,9.0,78,0.00,,,0.03,WUHU216DAVISVP2,2013-11-26 21:10:00,
2013-11-26 16:11:00,35.1,29.0,29.14,NW,316,4.0,9.0,78,0.00,,,0.03,WUHU216DAVISVP2,2013-11-26 21:11:00,
2013-11-26 16:12:00,35.1,29.0,29.14,NW,313,6.0,9.0,78,0.00,,,0.03,WUHU216DAVISVP2,2013-11-26 21:12:00,
2013-11-26 16:13:00,35.1,29.0,29.14,WNW,300,6.0,9.0,78,0.00,,,0.03,WUHU216DAVISVP2,2013-11-26 21:13:00,
2013-11-26 16:14:00,35.1,29.0,29.14,WNW,286,7.0,9.0,78,0.00,,,0.03,WUHU216DAVISVP2,2013-11-26 21:14:00,
2013-11-26 16:15:00,35.1,29.0,29.14,WNW,293,3.0,9.0,78,0.00,,,0.03,WUHU216DAVISVP2,2013-11-26 21:15:00,
2013-11-26 16:16:00,35.1,29.0,29.14,NW,309,5.0,9.0,78,0.00,,,0.03,WUHU216DAVISVP2,2013-11-26 21:16:00,
2013-11-26 16:17:00,35.0,28.9,29.14,NW,309,6.0,9.0,78,0.00,,,0.03,WUHU216DAVISVP2,2013-11-26 21:17:00,
2013-11-26 16:18:00,35.0,28.9,29.14,NW,317,5.0,9.0,78,0.00,,,0.03,WUHU216DAVISVP2,2013-11-26 21:18:00,
2013-11-26 16:20:00,35.0,29.2,29.14,NW,319,4.0,9.0,79,0.00,,,0.03,WUHU216DAVISVP2,2013-11-26 21:20:00,
2013-11-26 16:21:00,35.0,29.2,29.14,NW,319,1.0,9.0,79,0.00,,,0.03,WUHU216DAVISVP2,2013-11-26 21:21:00,
2013-11-26 16:22:00,35.0,29.2,29.14,NW,311,2.0,9.0,79,0.00,,,0.03,WUHU216DAVISVP2,2013-11-26 21:22:00,
2013-11-26 16:23:00,35.0,29.2,29.14,NW,326,7.0,9.0,79,0.00,,,0.03,WUHU216DAVISVP2,2013-11-26 21:23:00,
2013-11-26 16:26:00,35.0,29.2,29.14,NW,322,2.0,8.0,79,0.00,,,0.03,WUHU216DAVISVP2,2013-11-26 21:26:00,
2013-11-26 16:27:00,35.0,29.2,29.14,NW,322,4.0,8.0,79,0.00,,,0.03,WUHU216DAVISVP2,2013-11-26 21:27:00,
2013-11-26 16:28:00,35.0,29.2,29.14,NW,322,3.0,8.0,79,0.00,,,0.03,WUHU216DAVISVP2,2013-11-26 21:28:00,
2013-11-26 16:31:00,35.0,29.2,29.13,NW,325,4.0,8.0,79,0.00,,,0.03,WUHU216DAVISVP2,2013-11-26 21:31:00,
2013-11-26 16:32:00,34.9,29.1,29.13,NW,325,4.0,8.0,79,0.00,,,0.03,WUHU216DAVISVP2,2013-11-26 21:32:00,
2013-11-26 16:33:00,34.9,29.1,29.13,NW,325,5.0,8.0,79,0.00,,,0.03,WUHU216DAVISVP2,2013-11-26 21:33:00,
2013-11-26 16:36:00,34.8,29.0,29.13,NW,323,5.0,9.0,79,0.00,,,0.03,WUHU216DAVISVP2,2013-11-26 21:36:00,
2013-11-26 16:37:00,34.9,29.0,29.13,NW,323,4.0,9.0,79,0.00,,,0.03,WUHU216DAVISVP2,2013-11-26 21:37:00,
2013-11-26 16:38:00,34.8,29.0,29.13,NW,316,6.0,9.0,79,0.00,,,0.03,WUHU216DAVISVP2,2013-11-26 21:38:00,
2013-11-26 16:41:00,34.8,29.0,29.13,NW,318,7.0,9.0,79,0.00,,,0.03,WUHU216DAVISVP2,2013-11-26 21:41:00,
2013-11-26 16:42:00,34.8,29.0,29.13,NW,317,7.0,9.0,79,0.00,,,0.03,WUHU216DAVISVP2,2013-11-26 21:42:00,
2013-11-26 16:43:00,34.7,28.9,29.13,NW,325,5.0,9.0,79,0.00,,,0.03,WUHU216DAVISVP2,2013-11-26 21:43:00,
2013-11-26 16:44:00,34.7,28.9,29.14,NNW,327,5.0,9.0,79,0.00,,,0.03,WUHU216DAVISVP2,2013-11-26 21:44:00,
2013-11-26 16:47:00,34.7,28.9,29.13,NW,323,1.0,9.0,79,0.00,,,0.03,WUHU216DAVISVP2,2013-11-26 21:47:00,
2013-11-26 16:48:00,34.7,28.9,29.13,NW,323,3.0,9.0,79,0.00,,,0.03,WUHU216DAVISVP2,2013-11-26 21:48:00,
2013-11-26 16:49:00,34.7,28.9,29.13,NW,318,4.0,9.0,79,0.00,,,0.03,WUHU216DAVISVP2,2013-11-26 21:49:00,
2013-11-26 16:52:00,34.6,28.8,29.14,NW,322,4.0,9.0,79,0.00,,,0.03,WUHU216DAVISVP2,2013-11-26 21:52:00,
2013-11-26 16:53:00,34.6,29.1,29.14,NNW,335,4.0,9.0,80,0.00,,,0.03,WUHU216DAVISVP2,2013-11-26 21:53:00,
2013-11-26 16:54:00,34.6,28.8,29.14,NW,320,5.0,9.0,79,0.00,,,0.03,WUHU216DAVISVP2,2013-11-26 21:54:00,
2013-11-26 16:57:00,34.6,28.8,29.14,NW,311,0.0,9.0,79,0.00,,,0.03,WUHU216DAVISVP2,2013-11-26 21:57:00,
2013-11-26 16:58:00,34.6,29.1,29.14,NW,311,3.0,9.0,80,0.00,,,0.03,WUHU216DAVISVP2,2013-11-26 21:58:00,
2013-11-26 16:59:00,34.6,29.1,29.14,NW,311,5.0,7.0,80,0.00,,,0.03,WUHU216DAVISVP2,2013-11-26 21:59:00,
2013-11-26 17:00:00,34.6,29.1,29.14,NW,311,5.0,7.0,80,0.00,,,0.03,WUHU216DAVISVP2,2013-11-26 22:00:00,
2013-11-26 17:02:00,34.5,29.0,29.14,NW,311,2.0,6.0,80,0.00,,,0.03,WUHU216DAVISVP2,2013-11-26 22:02:00,
2013-11-26 17:03:00,34.5,29.0,29.14,NW,311,2.0,6.0,80,0.00,,,0.03,WUHU216DAVISVP2,2013-11-26 22:03:00,
2013-11-26 17:04:00,34.5,29.0,29.14,NW,311,3.0,6.0,80,0.00,,,0.03,WUHU216DAVISVP2,2013-11-26 22:04:00,
2013-11-26 17:05:00,34.5,29.0,29.14,NW,311,2.0,6.0,80,0.00,,,0.03,WUHU216DAVISVP2,2013-11-26 22:05:00,
2013-11-26 17:07:00,34.5,28.7,29.14,NW,311,4.0,7.0,79,0.00,,,0.03,WUHU216DAVISVP2,2013-11-26 22:07:00,
2013-11-26 17:08:00,34.4,28.9,29.14,NW,311,3.0,7.0,80,0.00,,,0.03,WUHU216DAVISVP2,2013-11-26 22:08:00,
2013-11-26 17:09:00,34.4,28.9,29.14,NW,311,5.0,7.0,80,0.00,,,0.03,WUHU216DAVISVP2,2013-11-26 22:09:00,
2013-11-26 17:10:00,34.4,28.9,29.14,NW,311,4.0,7.0,80,0.00,,,0.03,WUHU216DAVISVP2,2013-11-26 22:10:00,
2013-11-26 17:11:00,34.4,28.9,29.14,NW,311,4.0,7.0,80,0.00,,,0.03,WUHU216DAVISVP2,2013-11-26 22:11:00,
2013-11-26 17:12:00,34.4,28.9,29.14,NW,311,6.0,7.0,80,0.00,,,0.03,WUHU216DAVISVP2,2013-11-26 22:12:00,
2013-11-26 17:13:00,34.4,28.9,29.14,NW,311,6.0,7.0,80,0.00,,,0.03,WUHU216DAVISVP2,2013-11-26 22:13:00,
2013-11-26 17:14:00,34.3,28.8,29.14,NW,311,4.0,7.0,80,0.00,,,0.03,WUHU216DAVISVP2,2013-11-26 22:14:00,
2013-11-26 17:15:00,34.3,28.8,29.14,NW,311,4.0,7.0,80,0.00,,,0.03,WUHU216DAVISVP2,2013-11-26 22:15:00,
2013-11-26 17:17:00,34.3,28.8,29.14,NW,311,4.0,7.0,80,0.00,,,0.03,WUHU216DAVISVP2,2013-11-26 22:17:00,
2013-11-26 17:18:00,34.3,28.8,29.14,NW,311,1.0,7.0,80,0.00,,,0.03,WUHU216DAVISVP2,2013-11-26 22:18:00,
2013-11-26 17:19:00,34.3,28.8,29.14,NW,311,1.0,7.0,80,0.00,,,0.03,WUHU216DAVISVP2,2013-11-26 22:19:00,
2013-11-26 17:20:00,34.3,28.8,29.13,NW,311,0.0,7.0,80,0.00,,,0.03,WUHU216DAVISVP2,2013-11-26 22:20:00,
2013-11-26 17:22:00,34.3,28.8,29.13,NW,311,1.0,7.0,80,0.00,,,0.03,WUHU216DAVISVP2,2013-11-26 22:22:00,
2013-11-26 17:23:00,34.2,28.7,29.13,NW,311,2.0,7.0,80,0.00,,,0.03,WUHU216DAVISVP2,2013-11-26 22:23:00,
2013-11-26 17:24:00,34.2,28.7,29.13,NW,311,0.0,7.0,80,0.00,,,0.03,WUHU216DAVISVP2,2013-11-26 22:24:00,
2013-11-26 17:25:00,34.2,29.0,29.13,NW,311,0.0,7.0,81,0.00,,,0.03,WUHU216DAVISVP2,2013-11-26 22:25:00,
2013-11-26 17:27:00,34.2,29.0,29.14,NW,311,3.0,7.0,81,0.00,,,0.03,WUHU216DAVISVP2,2013-11-26 22:27:00,
2013-11-26 17:28:00,34.2,29.0,29.14,NW,310,0.0,7.0,81,0.00,,,0.03,WUHU216DAVISVP2,2013-11-26 22:28:00,
2013-11-26 17:29:00,34.2,29.0,29.14,NW,311,5.0,7.0,81,0.00,,,0.03,WUHU216DAVISVP2,2013-11-26 22:29:00,
2013-11-26 17:31:00,34.1,28.9,29.14,NW,311,4.0,7.0,81,0.00,,,0.03,WUHU216DAVISVP2,2013-11-26 22:31:00,
2013-11-26 17:32:00,34.1,28.9,29.14,NW,311,5.0,6.0,81,0.00,,,0.03,WUHU216DAVISVP2,2013-11-26 22:32:00,
2013-11-26 17:33:00,34.1,28.9,29.14,NW,311,5.0,6.0,81,0.00,,,0.03,WUHU216DAVISVP2,2013-11-26 22:33:00,
2013-11-26 17:34:00,34.1,28.9,29.14,NW,311,1.0,6.0,81,0.00,,,0.03,WUHU216DAVISVP2,2013-11-26 22:34:00,
2013-11-26 17:35:00,34.1,28.9,29.14,NW,311,0.0,6.0,81,0.00,,,0.03,WUHU216DAVISVP2,2013-11-26 22:35:00,
2013-11-26 17:36:00,34.1,28.9,29.14,NW,311,4.0,6.0,81,0.00,,,0.03,WUHU216DAVISVP2,2013-11-26 22:36:00,
2013-11-26 17:37:00,34.0,28.8,29.13,NW,311,5.0,6.0,81,0.00,,,0.03,WUHU216DAVISVP2,2013-11-26 22:37:00,
2013-11-26 17:38:00,34.0,28.8,29.14,NW,311,6.0,6.0,81,0.00,,,0.03,WUHU216DAVISVP2,2013-11-26 22:38:00,
2013-11-26 17:39:00,34.0,29.1,29.14,NW,311,4.0,6.0,82,0.00,,,0.03,WUHU216DAVISVP2,2013-11-26 22:39:00,
2013-11-26 17:40:00,34.0,29.1,29.14,NW,311,2.0,6.0,82,0.00,,,0.03,WUHU216DAVISVP2,2013-11-26 22:40:00,
2013-11-26 17:41:00,34.0,29.1,29.14,NW,311,6.0,6.0,82,0.00,,,0.03,WUHU216DAVISVP2,2013-11-26 22:41:00,
2013-11-26 17:42:00,34.0,29.1,29.14,NW,311,4.0,6.0,82,0.00,,,0.03,WUHU216DAVISVP2,2013-11-26 22:42:00,
2013-11-26 17:43:00,33.9,29.0,29.14,NW,311,1.0,6.0,82,0.00,,,0.03,WUHU216DAVISVP2,2013-11-26 22:43:00,
2013-11-26 17:44:00,33.9,29.0,29.14,NW,311,4.0,7.0,82,0.00,,,0.03,WUHU216DAVISVP2,2013-11-26 22:44:00,
2013-11-26 17:45:00,33.9,29.0,29.14,NW,311,6.0,7.0,82,0.00,,,0.03,WUHU216DAVISVP2,2013-11-26 22:45:00,
2013-11-26 17:46:00,33.9,29.0,29.14,NW,311,3.0,7.0,82,0.00,,,0.03,WUHU216DAVISVP2,2013-11-26 22:46:00,
2013-11-26 17:48:00,33.9,29.0,29.14,NW,305,5.0,8.0,82,0.00,,,0.03,WUHU216DAVISVP2,2013-11-26 22:48:00,
2013-11-26 17:49:00,33.9,29.0,29.14,WNW,295,7.0,8.0,82,0.00,,,0.03,WUHU216DAVISVP2,2013-11-26 22:49:00,
2013-11-26 17:50:00,33.9,29.0,29.14,WNW,295,5.0,8.0,82,0.00,,,0.03,WUHU216DAVISVP2,2013-11-26 22:50:00,
2013-11-26 17:51:00,33.9,29.0,29.14,WNW,295,2.0,8.0,82,0.00,,,0.03,WUHU216DAVISVP2,2013-11-26 22:51:00,
2013-11-26 17:54:00,33.8,28.9,29.13,WNW,297,6.0,10.0,82,0.00,,,0.03,WUHU216DAVISVP2,2013-11-26 22:54:00,
2013-11-26 17:55:00,33.8,28.9,29.14,NW,313,6.0,10.0,82,0.00,,,0.03,WUHU216DAVISVP2,2013-11-26 22:55:00,
2013-11-26 17:56:00,33.8,28.9,29.14,WNW,299,6.0,10.0,82,0.00,,,0.03,WUHU216DAVISVP2,2013-11-26 22:56:00,
2013-11-26 17:59:00,33.8,28.9,29.14,NW,309,6.0,10.0,82,0.00,,,0.03,WUHU216DAVISVP2,2013-11-26 22:59:00,
2013-11-26 18:00:00,33.8,28.9,29.14,NW,312,5.0,10.0,82,0.00,,,0.03,WUHU216DAVISVP2,2013-11-26 23:00:00,
2013-11-26 18:01:00,33.8,28.9,29.14,NW,313,6.0,10.0,82,0.00,,,0.03,WUHU216DAVISVP2,2013-11-26 23:01:00,
2013-11-26 18:02:00,33.8,28.9,29.14,WNW,303,7.0,10.0,82,0.00,,,0.03,WUHU216DAVISVP2,2013-11-26 23:02:00,
2013-11-26 18:04:00,33.8,28.9,29.13,NW,318,7.0,10.0,82,0.00,,,0.03,WUHU216DAVISVP2,2013-11-26 23:04:00,
2013-11-26 18:05:00,33.8,28.9,29.13,WNW,298,5.0,10.0,82,0.00,,,0.03,WUHU216DAVISVP2,2013-11-26 23:05:00,
2013-11-26 18:06:00,33.8,28.9,29.13,NW,307,6.0,10.0,82,0.00,,,0.03,WUHU216DAVISVP2,2013-11-26 23:06:00,
2013-11-26 18:07:00,33.8,28.9,29.13,NW,315,5.0,10.0,82,0.00,,,0.03,WUHU216DAVISVP2,2013-11-26 23:07:00,
2013-11-26 18:09:00,33.7,28.8,29.14,NW,314,5.0,10.0,82,0.00,,,0.03,WUHU216DAVISVP2,2013-11-26 23:09:00,
2013-11-26 18:11:00,33.7,28.8,29.14,NW,304,7.0,10.0,82,0.00,,,0.03,WUHU216DAVISVP2,2013-11-26 23:11:00,
2013-11-26 18:12:00,33.7,28.8,29.14,NW,314,6.0,9.0,82,0.00,,,0.03,WUHU216DAVISVP2,2013-11-26 23:12:00,
2013-11-26 18:14:00,33.7,28.8,29.14,WNW,283,1.0,9.0,82,0.00,,,0.03,WUHU216DAVISVP2,2013-11-26 23:14:00,
2013-11-26 18:16:00,33.7,28.8,29.14,NW,314,7.0,9.0,82,0.00,,,0.03,WUHU216DAVISVP2,2013-11-26 23:16:00,
2013-11-26 18:17:00,33.7,28.8,29.15,NW,306,5.0,9.0,82,0.00,,,0.03,WUHU216DAVISVP2,2013-11-26 23:17:00,
2013-11-26 18:20:00,33.7,28.8,29.14,NW,305,6.0,8.0,82,0.00,,,0.03,WUHU216DAVISVP2,2013-11-26 23:20:00,
2013-11-26 18:21:00,33.7,28.8,29.14,NW,309,7.0,8.0,82,0.00,,,0.03,WUHU216DAVISVP2,2013-11-26 23:21:00,
2013-11-26 18:22:00,33.7,28.8,29.14,WNW,303,6.0,10.0,82,0.00,,,0.03,WUHU216DAVISVP2,2013-11-26 23:22:00,
2013-11-26 18:25:00,33.7,28.8,29.14,NW,310,6.0,10.0,82,0.00,,,0.03,WUHU216DAVISVP2,2013-11-26 23:25:00,
2013-11-26 18:26:00,33.7,28.8,29.14,NW,312,4.0,10.0,82,0.00,,,0.03,WUHU216DAVISVP2,2013-11-26 23:26:00,
2013-11-26 18:27:00,33.7,28.8,29.14,NW,310,8.0,10.0,82,0.00,,,0.03,WUHU216DAVISVP2,2013-11-26 23:27:00,
2013-11-26 18:28:00,33.7,28.8,29.14,NW,310,8.0,10.0,82,0.00,,,0.03,WUHU216DAVISVP2,2013-11-26 23:28:00,
2013-11-26 18:30:00,33.7,29.1,29.14,NW,322,4.0,10.0,83,0.00,,,0.03,WUHU216DAVISVP2,2013-11-26 23:30:00,
2013-11-26 18:31:00,33.7,29.1,29.14,WNW,300,4.0,10.0,83,0.00,,,0.03,WUHU216DAVISVP2,2013-11-26 23:31:00,
2013-11-26 18:32:00,33.7,29.1,29.14,NW,313,4.0,10.0,83,0.00,,,0.03,WUHU216DAVISVP2,2013-11-26 23:32:00,
2013-11-26 18:33:00,33.7,29.1,29.14,WNW,291,5.0,10.0,83,0.00,,,0.03,WUHU216DAVISVP2,2013-11-26 23:33:00,
2013-11-26 18:35:00,33.6,29.0,29.14,WNW,301,8.0,10.0,83,0.00,,,0.03,WUHU216DAVISVP2,2013-11-26 23:35:00,
2013-11-26 18:36:00,33.6,29.0,29.14,NW,316,5.0,10.0,83,0.00,,,0.03,WUHU216DAVISVP2,2013-11-26 23:36:00,
2013-11-26 18:38:00,33.6,29.0,29.14,NW,315,4.0,10.0,83,0.00,,,0.03,WUHU216DAVISVP2,2013-11-26 23:38:00,
2013-11-26 18:41:00,33.6,29.0,29.15,NW,305,6.0,10.0,83,0.00,,,0.03,WUHU216DAVISVP2,2013-11-26 23:41:00,
2013-11-26 18:42:00,33.6,29.0,29.15,WNW,297,6.0,10.0,83,0.00,,,0.03,WUHU216DAVISVP2,2013-11-26 23:42:00,
2013-11-26 18:43:00,33.6,29.0,29.15,WNW,302,7.0,10.0,83,0.00,,,0.03,WUHU216DAVISVP2,2013-11-26 23:43:00,
2013-11-26 18:44:00,33.5,28.9,29.15,WNW,303,7.0,10.0,83,0.00,,,0.03,WUHU216DAVISVP2,2013-11-26 23:44:00,
2013-11-26 18:46:00,33.5,28.9,29.15,NW,312,7.0,10.0,83,0.00,,,0.03,WUHU216DAVISVP2,2013-11-26 23:46:00,
2013-11-26 18:47:00,33.5,28.9,29.15,NW,306,5.0,9.0,83,0.00,,,0.03,WUHU216DAVISVP2,2013-11-26 23:47:00,
2013-11-26 18:48:00,33.5,28.9,29.15,NW,323,6.0,9.0,83,0.00,,,0.03,WUHU216DAVISVP2,2013-11-26 23:48:00,
2013-11-26 18:49:00,33.5,28.9,29.15,WNW,303,5.0,9.0,83,0.00,,,0.03,WUHU216DAVISVP2,2013-11-26 23:49:00,
2013-11-26 18:51:00,33.5,28.9,29.15,NW,305,7.0,9.0,83,0.00,,,0.03,WUHU216DAVISVP2,2013-11-26 23:51:00,
2013-11-26 18:52:00,33.5,28.9,29.15,NW,308,5.0,9.0,83,0.00,,,0.03,WUHU216DAVISVP2,2013-11-26 23:52:00,
2013-11-26 18:53:00,33.5,28.9,29.15,WNW,297,7.0,9.0,83,0.00,,,0.03,WUHU216DAVISVP2,2013-11-26 23:53:00,
2013-11-26 18:54:00,33.5,28.9,29.15,NW,305,6.0,9.0,83,0.00,,,0.03,WUHU216DAVISVP2,2013-11-26 23:54:00,
2013-11-26 18:56:00,33.5,28.9,29.15,WNW,303,6.0,9.0,83,0.00,,,0.03,WUHU216DAVISVP2,2013-11-26 23:56:00,
2013-11-26 18:58:00,33.5,28.9,29.15,NW,324,6.0,9.0,83,0.00,,,0.03,WUHU216DAVISVP2,2013-11-26 23:58:00,
2013-11-26 18:59:00,33.5,28.9,29.15,NW,322,5.0,9.0,83,0.00,,,0.03,WUHU216DAVISVP2,2013-11-26 23:59:00,
2013-11-26 19:00:00,33.5,28.9,29.15,WNW,302,6.0,9.0,83,0.00,,,0.03,WUHU216DAVISVP2,2013-11-27 00:00:00,
2013-11-26 19:01:00,33.5,28.9,29.15,WNW,301,6.0,9.0,83,0.00,,,0.03,WUHU216DAVISVP2,2013-11-27 00:01:00,
2013-11-26 19:03:00,33.5,28.9,29.15,NW,310,5.0,9.0,83,0.00,,,0.03,WUHU216DAVISVP2,2013-11-27 00:03:00,
2013-11-26 19:04:00,33.4,28.8,29.15,NNW,347,5.0,9.0,83,0.00,,,0.03,WUHU216DAVISVP2,2013-11-27 00:04:00,
2013-11-26 19:05:00,33.5,28.9,29.15,NW,316,5.0,9.0,83,0.00,,,0.03,WUHU216DAVISVP2,2013-11-27 00:05:00,
2013-11-26 19:06:00,33.4,28.8,29.15,WNW,303,6.0,9.0,83,0.00,,,0.03,WUHU216DAVISVP2,2013-11-27 00:06:00,
2013-11-26 19:08:00,33.4,28.8,29.15,NW,324,6.0,9.0,83,0.00,,,0.03,WUHU216DAVISVP2,2013-11-27 00:08:00,
2013-11-26 19:09:00,33.4,28.8,29.15,WNW,298,5.0,9.0,83,0.00,,,0.03,WUHU216DAVISVP2,2013-11-27 00:09:00,
2013-11-26 19:10:00,33.4,28.8,29.15,WNW,299,4.0,9.0,83,0.00,,,0.03,WUHU216DAVISVP2,2013-11-27 00:10:00,
2013-11-26 19:11:00,33.4,28.8,29.15,NW,314,5.0,9.0,83,0.00,,,0.03,WUHU216DAVISVP2,2013-11-27 00:11:00,
2013-11-26 19:13:00,33.4,29.1,29.15,NW,316,5.0,9.0,84,0.00,,,0.03,WUHU216DAVISVP2,2013-11-27 00:13:00,
2013-11-26 19:15:00,33.4,29.1,29.15,NW,311,2.0,9.0,84,0.00,,,0.03,WUHU216DAVISVP2,2013-11-27 00:15:00,
2013-11-26 19:16:00,33.3,29.0,29.15,NW,312,5.0,8.0,84,0.00,,,0.03,WUHU216DAVISVP2,2013-11-27 00:16:00,
2013-11-26 19:19:00,33.3,29.0,29.15,NW,310,5.0,9.0,84,0.00,,,0.03,WUHU216DAVISVP2,2013-11-27 00:19:00,
2013-11-26 19:20:00,33.3,29.0,29.14,NW,304,8.0,9.0,84,0.00,,,0.03,WUHU216DAVISVP2,2013-11-27 00:20:00,
2013-11-26 19:21:00,33.3,29.0,29.14,NNW,342,5.0,9.0,84,0.00,,,0.03,WUHU216DAVISVP2,2013-11-27 00:21:00,
2013-11-26 19:22:00,33.3,29.0,29.14,NW,318,4.0,9.0,84,0.00,,,0.03,WUHU216DAVISVP2,2013-11-27 00:22:00,
2013-11-26 19:24:00,33.3,29.0,29.14,NW,321,6.0,10.0,84,0.00,,,0.03,WUHU216DAVISVP2,2013-11-27 00:24:00,
2013-11-26 19:25:00,33.3,29.0,29.14,NW,324,6.0,10.0,84,0.00,,,0.03,WUHU216DAVISVP2,2013-11-27 00:25:00,
2013-11-26 19:26:00,33.3,29.0,29.14,WNW,301,11.0,11.0,84,0.00,,,0.03,WUHU216DAVISVP2,2013-11-27 00:26:00,
2013-11-26 19:27:00,33.3,29.0,29.14,NW,322,6.0,11.0,84,0.00,,,0.03,WUHU216DAVISVP2,2013-11-27 00:27:00,
2013-11-26 19:30:00,33.2,28.9,29.14,NW,309,8.0,11.0,84,0.00,,,0.03,WUHU216DAVISVP2,2013-11-27 00:30:00,
2013-11-26 19:31:00,33.2,28.9,29.15,NNW,337,7.0,11.0,84,0.00,,,0.03,WUHU216DAVISVP2,2013-11-27 00:31:00,
2013-11-26 19:32:00,33.2,28.9,29.15,NW,318,10.0,11.0,84,0.00,,,0.03,WUHU216DAVISVP2,2013-11-27 00:32:00,
2013-11-26 19:35:00,33.2,28.9,29.15,NW,304,7.0,11.0,84,0.00,,,0.03,WUHU216DAVISVP2,2013-11-27 00:35:00,
2013-11-26 19:36:00,33.2,28.9,29.15,NNW,335,8.0,11.0,84,0.00,,,0.03,WUHU216DAVISVP2,2013-11-27 00:36:00,
2013-11-26 19:37:00,33.2,28.9,29.15,NW,318,9.0,11.0,84,0.00,,,0.03,WUHU216DAVISVP2,2013-11-27 00:37:00,
2013-11-26 19:40:00,33.2,28.9,29.15,NNW,331,8.0,11.0,84,0.00,,,0.03,WUHU216DAVISVP2,2013-11-27 00:40:00,
2013-11-26 19:41:00,33.1,28.8,29.15,NW,319,4.0,11.0,84,0.00,,,0.03,WUHU216DAVISVP2,2013-11-27 00:41:00,
2013-11-26 19:42:00,33.1,29.1,29.15,NW,320,10.0,12.0,85,0.00,,,0.03,WUHU216DAVISVP2,2013-11-27 00:42:00,
2013-11-26 19:43:00,33.1,29.1,29.15,NW,326,6.0,12.0,85,0.00,,,0.03,WUHU216DAVISVP2,2013-11-27 00:43:00,
2013-11-26 19:45:00,33.1,29.1,29.15,NNW,332,6.0,14.0,85,0.00,,,0.03,WUHU216DAVISVP2,2013-11-27 00:45:00,
2013-11-26 19:46:00,33.0,29.0,29.15,NNW,337,9.0,14.0,85,0.00,,,0.03,WUHU216DAVISVP2,2013-11-27 00:46:00,
2013-11-26 19:47:00,33.0,29.0,29.15,NNW,347,7.0,14.0,85,0.00,,,0.03,WUHU216DAVISVP2,2013-11-27 00:47:00,
2013-11-26 19:48:00,33.0,29.0,29.15,NNW,333,8.0,14.0,85,0.00,,,0.03,WUHU216DAVISVP2,2013-11-27 00:48:00,
2013-11-26 19:50:00,33.0,29.0,29.15,NW,324,10.0,14.0,85,0.01,,,0.04,WUHU216DAVISVP2,2013-11-27 00:50:00,
2013-11-26 19:51:00,33.0,29.2,29.15,NW,324,8.0,14.0,86,0.01,,,0.04,WUHU216DAVISVP2,2013-11-27 00:51:00,
2013-11-26 19:52:00,33.0,29.2,29.15,NNW,343,11.0,14.0,86,0.01,,,0.04,WUHU216DAVISVP2,2013-11-27 00:52:00,
2013-11-26 19:53:00,33.0,29.2,29.15,NW,323,9.0,14.0,86,0.01,,,0.04,WUHU216DAVISVP2,2013-11-27 00:53:00,
2013-11-26 19:55:00,33.0,29.2,29.15,NW,326,11.0,14.0,86,0.01,,,0.04,WUHU216DAVISVP2,2013-11-27 00:55:00,
2013-11-26 19:56:00,33.0,29.2,29.15,NNW,327,11.0,14.0,86,0.01,,,0.04,WUHU216DAVISVP2,2013-11-27 00:56:00,
2013-11-26 19:57:00,32.9,29.1,29.15,NNW,339,9.0,14.0,86,0.01,,,0.04,WUHU216DAVISVP2,2013-11-27 00:57:00,
2013-11-26 19:58:00,32.9,29.1,29.15,NNW,339,9.0,14.0,86,0.01,,,0.04,WUHU216DAVISVP2,2013-11-27 00:58:00,
2013-11-26 20:00:00,32.9,29.1,29.15,North,350,9.0,14.0,86,0.01,,,0.04,WUHU216DAVISVP2,2013-11-27 01:00:00,
2013-11-26 20:01:00,32.9,29.4,29.15,NNW,338,7.0,14.0,87,0.01,,,0.04,WUHU216DAVISVP2,2013-11-27 01:01:00,
2013-11-26 20:03:00,32.9,29.4,29.15,NNW,341,15.0,15.0,87,0.01,,,0.04,WUHU216DAVISVP2,2013-11-27 01:03:00,
2013-11-26 20:05:00,32.9,29.1,29.15,NNW,328,13.0,15.0,86,0.01,,,0.04,WUHU216DAVISVP2,2013-11-27 01:05:00,
2013-11-26 20:07:00,32.9,29.1,29.15,NNW,347,12.0,16.0,86,0.01,,,0.04,WUHU216DAVISVP2,2013-11-27 01:07:00,
2013-11-26 20:08:00,32.9,29.1,29.15,NNW,334,16.0,19.0,86,0.01,,,0.04,WUHU216DAVISVP2,2013-11-27 01:08:00,
2013-11-26 20:09:00,32.9,29.1,29.15,North,359,14.0,19.0,86,0.01,,,0.04,WUHU216DAVISVP2,2013-11-27 01:09:00,
2013-11-26 20:10:00,32.9,29.1,29.15,North,354,13.0,19.0,86,0.01,,,0.04,WUHU216DAVISVP2,2013-11-27 01:10:00,
2013-11-26 20:12:00,32.9,29.1,29.16,NNW,346,11.0,21.0,86,0.01,,,0.04,WUHU216DAVISVP2,2013-11-27 01:12:00,
2013-11-26 20:13:00,32.8,29.0,29.16,NNW,333,12.0,21.0,86,0.01,,,0.04,WUHU216DAVISVP2,2013-11-27 01:13:00,
2013-11-26 20:14:00,32.8,28.8,29.16,NNW,346,13.0,21.0,85,0.01,,,0.04,WUHU216DAVISVP2,2013-11-27 01:14:00,
2013-11-26 20:16:00,32.7,28.7,29.16,North,359,13.0,21.0,85,0.01,,,0.04,WUHU216DAVISVP2,2013-11-27 01:16:00,
2013-11-26 20:17:00,32.6,28.6,29.16,NNE,12,14.0,21.0,85,0.01,,,0.04,WUHU216DAVISVP2,2013-11-27 01:17:00,
2013-11-26 20:18:00,32.6,28.6,29.16,North,354,9.0,21.0,85,0.01,,,0.04,WUHU216DAVISVP2,2013-11-27 01:18:00,
2013-11-26 20:19:00,32.5,28.5,29.16,NNE,19,9.0,21.0,85,0.01,,,0.04,WUHU216DAVISVP2,2013-11-27 01:19:00,
2013-11-26 20:22:00,32.3,28.3,29.16,North,354,15.0,21.0,85,0.01,,,0.04,WUHU216DAVISVP2,2013-11-27 01:22:00,
2013-11-26 20:23:00,32.2,28.2,29.16,NNE,13,20.0,24.0,85,0.01,,,0.04,WUHU216DAVISVP2,2013-11-27 01:23:00,
2013-11-26 20:25:00,32.0,27.7,29.16,NNE,19,15.0,24.0,84,0.01,,,0.04,WUHU216DAVISVP2,2013-11-27 01:25:00,
2013-11-26 20:27:00,31.8,27.5,29.17,NNE,16,18.0,24.0,84,0.01,,,0.04,WUHU216DAVISVP2,2013-11-27 01:27:00,
2013-11-26 20:28:00,31.7,27.4,29.17,NNE,22,22.0,24.0,84,0.01,,,0.04,WUHU216DAVISVP2,2013-11-27 01:28:00,
2013-11-26 20:30:00,31.6,27.6,29.16,NNE,12,21.0,24.0,85,0.01,,,0.04,WUHU216DAVISVP2,2013-11-27 01:30:00,
2013-11-26 20:33:00,31.6,27.3,29.16,NNE,31,19.0,24.0,84,0.01,,,0.04,WUHU216DAVISVP2,2013-11-27 01:33:00,
2013-11-26 20:34:00,31.5,27.2,29.16,North,11,16.0,24.0,84,0.01,,,0.04,WUHU216DAVISVP2,2013-11-27 01:34:00,
2013-11-26 20:35:00,31.5,27.2,29.16,NNW,339,26.0,26.0,84,0.01,,,0.04,WUHU216DAVISVP2,2013-11-27 01:35:00,
2013-11-26 20:36:00,31.5,27.2,29.16,NNE,12,23.0,26.0,84,0.01,,,0.04,WUHU216DAVISVP2,2013-11-27 01:36:00,
2013-11-26 20:38:00,31.4,26.8,29.16,NE,35,22.0,26.0,83,0.01,,,0.04,WUHU216DAVISVP2,2013-11-27 01:38:00,
2013-11-26 20:39:00,31.4,26.8,29.16,North,10,21.0,26.0,83,0.01,,,0.04,WUHU216DAVISVP2,2013-11-27 01:39:00,
2013-11-26 20:41:00,31.4,26.8,29.16,North,4,24.0,26.0,83,0.01,,,0.04,WUHU216DAVISVP2,2013-11-27 01:41:00,
2013-11-26 20:43:00,31.3,26.7,29.16,NNE,22,15.0,26.0,83,0.01,,,0.04,WUHU216DAVISVP2,2013-11-27 01:43:00,
2013-11-26 20:44:00,31.3,26.7,29.16,NNE,23,25.0,26.0,83,0.01,,,0.04,WUHU216DAVISVP2,2013-11-27 01:44:00,
2013-11-26 20:46:00,31.2,26.6,29.17,NNE,18,14.0,26.0,83,0.01,,,0.04,WUHU216DAVISVP2,2013-11-27 01:46:00,
2013-11-26 20:48:00,31.2,26.9,29.17,NNW,339,11.0,26.0,84,0.01,,,0.04,WUHU216DAVISVP2,2013-11-27 01:48:00,
2013-11-26 20:49:00,31.1,26.8,29.17,North,4,21.0,26.0,84,0.00,,,0.04,WUHU216DAVISVP2,2013-11-27 01:49:00,
2013-11-26 20:50:00,31.1,26.8,29.17,North,359,14.0,26.0,84,0.00,,,0.04,WUHU216DAVISVP2,2013-11-27 01:50:00,
2013-11-26 20:51:00,31.1,26.8,29.17,NNE,17,13.0,26.0,84,0.00,,,0.04,WUHU216DAVISVP2,2013-11-27 01:51:00,
2013-11-26 20:53:00,31.1,26.8,29.17,NNE,23,11.0,26.0,84,0.00,,,0.04,WUHU216DAVISVP2,2013-11-27 01:53:00,
2013-11-26 20:54:00,31.0,26.7,29.17,NNE,12,12.0,26.0,84,0.00,,,0.04,WUHU216DAVISVP2,2013-11-27 01:54:00,
2013-11-26 20:55:00,31.0,26.7,29.17,North,354,9.0,26.0,84,0.00,,,0.04,WUHU216DAVISVP2,2013-11-27 01:55:00,
2013-11-26 20:56:00,31.0,26.7,29.17,NNE,24,16.0,26.0,84,0.00,,,0.04,WUHU216DAVISVP2,2013-11-27 01:56:00,
2013-11-26 20:58:00,30.9,26.6,29.17,NNE,32,14.0,26.0,84,0.00,,,0.04,WUHU216DAVISVP2,2013-11-27 01:58:00,
2013-11-26 20:59:00,30.9,26.6,29.17,NNE,22,15.0,26.0,84,0.00,,,0.04,WUHU216DAVISVP2,2013-11-27 01:59:00,
2013-11-26 21:00:00,30.8,26.5,29.17,North,359,13.0,26.0,84,0.00,,,0.04,WUHU216DAVISVP2,2013-11-27 02:00:00,
2013-11-26 21:01:00,30.8,26.5,29.17,NNE,12,13.0,25.0,84,0.00,,,0.04,WUHU216DAVISVP2,2013-11-27 02:01:00,
2013-11-26 21:03:00,30.8,26.5,29.17,NNE,27,19.0,25.0,84,0.00,,,0.04,WUHU216DAVISVP2,2013-11-27 02:03:00,
2013-11-26 21:04:00,30.7,26.4,29.17,NE,35,15.0,23.0,84,0.00,,,0.04,WUHU216DAVISVP2,2013-11-27 02:04:00,
2013-11-26 21:05:00,30.7,26.4,29.17,NE,45,15.0,23.0,84,0.00,,,0.04,WUHU216DAVISVP2,2013-11-27 02:05:00,
2013-11-26 21:06:00,30.7,26.4,29.17,North,8,8.0,22.0,84,0.00,,,0.04,WUHU216DAVISVP2,2013-11-27 02:06:00,
2013-11-26 21:09:00,30.7,26.4,29.17,NNE,22,13.0,22.0,84,0.00,,,0.04,WUHU216DAVISVP2,2013-11-27 02:09:00,
2013-11-26 21:10:00,30.7,26.4,29.17,North,4,16.0,22.0,84,0.00,,,0.04,WUHU216DAVISVP2,2013-11-27 02:10:00,
2013-11-26 21:12:00,30.6,26.3,29.17,NNE,12,16.0,22.0,84,0.00,,,0.04,WUHU216DAVISVP2,2013-11-27 02:12:00,
2013-11-26 21:14:00,30.6,26.3,29.17,North,8,13.0,22.0,84,0.00,,,0.04,WUHU216DAVISVP2,2013-11-27 02:14:00,
2013-11-26 21:15:00,30.6,26.3,29.17,NNW,345,15.0,22.0,84,0.00,,,0.04,WUHU216DAVISVP2,2013-11-27 02:15:00,
2013-11-26 21:17:00,30.6,26.3,29.17,North,354,12.0,22.0,84,0.00,,,0.04,WUHU216DAVISVP2,2013-11-27 02:17:00,
2013-11-26 21:19:00,30.6,26.3,29.17,NNE,31,8.0,22.0,84,0.00,,,0.04,WUHU216DAVISVP2,2013-11-27 02:19:00,
2013-11-26 21:20:00,30.6,26.3,29.17,North,10,11.0,22.0,84,0.00,,,0.04,WUHU216DAVISVP2,2013-11-27 02:20:00,
2013-11-26 21:22:00,30.5,26.2,29.17,NNE,18,9.0,21.0,84,0.00,,,0.04,WUHU216DAVISVP2,2013-11-27 02:22:00,
2013-11-26 21:23:00,30.6,26.3,29.17,NNE,18,18.0,20.0,84,0.00,,,0.04,WUHU216DAVISVP2,2013-11-27 02:23:00,
2013-11-26 21:24:00,30.5,26.2,29.17,NNE,13,11.0,20.0,84,0.00,,,0.04,WUHU216DAVISVP2,2013-11-27 02:24:00,
2013-11-26 21:25:00,30.5,26.2,29.17,North,4,13.0,20.0,84,0.00,,,0.04,WUHU216DAVISVP2,2013-11-27 02:25:00,
2013-11-26 21:27:00,30.5,26.2,29.17,North,354,10.0,20.0,84,0.00,,,0.04,WUHU216DAVISVP2,2013-11-27 02:27:00,
2013-11-26 21:29:00,30.5,26.2,29.17,North,354,9.0,20.0,84,0.00,,,0.04,WUHU216DAVISVP2,2013-11-27 02:29:00,
2013-11-26 21:30:00,30.4,26.4,29.17,North,4,18.0,20.0,85,0.00,,,0.04,WUHU216DAVISVP2,2013-11-27 02:30:00,
2013-11-26 21:32:00,30.4,26.4,29.17,North,4,10.0,20.0,85,0.00,,,0.04,WUHU216DAVISVP2,2013-11-27 02:32:00,
2013-11-26 21:34:00,30.4,26.4,29.17,North,359,6.0,20.0,85,0.00,,,0.04,WUHU216DAVISVP2,2013-11-27 02:34:00,
2013-11-26 21:35:00,30.3,26.3,29.17,North,4,12.0,20.0,85,0.00,,,0.04,WUHU216DAVISVP2,2013-11-27 02:35:00,
2013-11-26 21:36:00,30.4,26.4,29.17,North,354,11.0,20.0,85,0.00,,,0.04,WUHU216DAVISVP2,2013-11-27 02:36:00,
2013-11-26 21:37:00,30.3,26.3,29.17,North,4,11.0,20.0,85,0.00,,,0.04,WUHU216DAVISVP2,2013-11-27 02:37:00,
2013-11-26 21:39:00,30.3,26.6,29.17,North,10,14.0,20.0,86,0.00,,,0.04,WUHU216DAVISVP2,2013-11-27 02:39:00,
2013-11-26 21:40:00,30.3,26.6,29.17,NNE,18,18.0,20.0,86,0.00,,,0.04,WUHU216DAVISVP2,2013-11-27 02:40:00,
2013-11-26 21:41:00,30.2,26.5,29.18,North,359,9.0,20.0,86,0.00,,,0.04,WUHU216DAVISVP2,2013-11-27 02:41:00,
2013-11-26 21:43:00,30.1,26.4,29.18,NNE,14,10.0,18.0,86,0.00,,,0.04,WUHU216DAVISVP2,2013-11-27 02:43:00,
2013-11-26 21:45:00,30.1,26.7,29.17,NNE,28,11.0,18.0,87,0.00,,,0.04,WUHU216DAVISVP2,2013-11-27 02:45:00,
2013-11-26 21:46:00,30.0,26.6,29.17,North,8,12.0,18.0,87,0.00,,,0.04,WUHU216DAVISVP2,2013-11-27 02:46:00,
2013-11-26 21:47:00,30.0,26.6,29.17,North,354,9.0,18.0,87,0.00,,,0.04,WUHU216DAVISVP2,2013-11-27 02:47:00,
2013-11-26 21:48:00,30.0,26.6,29.17,NNE,18,10.0,18.0,87,0.00,,,0.04,WUHU216DAVISVP2,2013-11-27 02:48:00,
2013-11-26 21:50:00,29.9,26.5,29.17,North,359,15.0,18.0,87,0.00,,,0.04,WUHU216DAVISVP2,2013-11-27 02:50:00,
2013-11-26 21:51:00,29.9,26.5,29.17,North,4,10.0,18.0,87,0.00,,,0.04,WUHU216DAVISVP2,2013-11-27 02:51:00,
2013-11-26 21:52:00,29.9,26.7,29.17,NNE,21,11.0,18.0,88,0.00,,,0.04,WUHU216DAVISVP2,2013-11-27 02:52:00,
2013-11-26 21:53:00,29.9,26.7,29.17,NNE,27,12.0,18.0,88,0.00,,,0.04,WUHU216DAVISVP2,2013-11-27 02:53:00,
2013-11-26 21:55:00,29.9,26.7,29.17,NNE,14,11.0,18.0,88,0.00,,,0.04,WUHU216DAVISVP2,2013-11-27 02:55:00,
2013-11-26 21:56:00,29.8,26.6,29.17,NNE,12,12.0,18.0,88,0.00,,,0.04,WUHU216DAVISVP2,2013-11-27 02:56:00,
2013-11-26 21:58:00,29.8,26.6,29.17,NNE,12,11.0,18.0,88,0.00,,,0.04,WUHU216DAVISVP2,2013-11-27 02:58:00,
2013-11-26 22:00:00,29.8,26.6,29.17,NNW,348,7.0,16.0,88,0.00,,,0.04,WUHU216DAVISVP2,2013-11-27 03:00:00,
2013-11-26 22:01:00,29.8,26.6,29.17,NNE,14,8.0,16.0,88,0.00,,,0.04,WUHU216DAVISVP2,2013-11-27 03:01:00,
2013-11-26 22:02:00,29.7,26.5,29.17,North,359,8.0,16.0,88,0.00,,,0.04,WUHU216DAVISVP2,2013-11-27 03:02:00,
2013-11-26 22:03:00,29.8,26.6,29.17,North,354,6.0,16.0,88,0.00,,,0.04,WUHU216DAVISVP2,2013-11-27 03:03:00,
2013-11-26 22:06:00,29.8,26.6,29.17,NNW,341,8.0,16.0,88,0.00,,,0.04,WUHU216DAVISVP2,2013-11-27 03:06:00,
2013-11-26 22:07:00,29.7,26.5,29.17,NNE,16,6.0,16.0,88,0.00,,,0.04,WUHU216DAVISVP2,2013-11-27 03:07:00,
2013-11-26 22:08:00,29.7,26.5,29.17,North,8,10.0,16.0,88,0.00,,,0.04,WUHU216DAVISVP2,2013-11-27 03:08:00,
2013-11-26 22:11:00,29.6,26.4,29.17,North,10,16.0,16.0,88,0.00,,,0.04,WUHU216DAVISVP2,2013-11-27 03:11:00,
2013-11-26 22:12:00,29.6,26.4,29.17,NNW,344,8.0,18.0,88,0.00,,,0.04,WUHU216DAVISVP2,2013-11-27 03:12:00,
2013-11-26 22:13:00,29.6,26.4,29.17,North,354,14.0,18.0,88,0.00,,,0.04,WUHU216DAVISVP2,2013-11-27 03:13:00,
2013-11-26 22:16:00,29.5,26.1,29.17,North,4,11.0,18.0,87,0.00,,,0.04,WUHU216DAVISVP2,2013-11-27 03:16:00,
2013-11-26 22:17:00,29.5,26.1,29.17,NE,43,11.0,18.0,87,0.00,,,0.04,WUHU216DAVISVP2,2013-11-27 03:17:00,
2013-11-26 22:18:00,29.5,26.1,29.17,North,4,11.0,18.0,87,0.00,,,0.04,WUHU216DAVISVP2,2013-11-27 03:18:00,
2013-11-26 22:19:00,29.4,26.0,29.17,North,359,8.0,18.0,87,0.00,,,0.04,WUHU216DAVISVP2,2013-11-27 03:19:00,
2013-11-26 22:21:00,29.4,26.0,29.17,North,359,11.0,18.0,87,0.00,,,0.04,WUHU216DAVISVP2,2013-11-27 03:21:00,
2013-11-26 22:22:00,29.4,26.0,29.17,North,4,10.0,18.0,87,0.00,,,0.04,WUHU216DAVISVP2,2013-11-27 03:22:00,
2013-11-26 22:23:00,29.4,25.7,29.17,NNE,14,7.0,18.0,86,0.00,,,0.04,WUHU216DAVISVP2,2013-11-27 03:23:00,
2013-11-26 22:24:00,29.4,25.7,29.17,NNW,343,10.0,18.0,86,0.00,,,0.04,WUHU216DAVISVP2,2013-11-27 03:24:00,
2013-11-26 22:26:00,29.4,25.7,29.17,North,354,6.0,18.0,86,0.00,,,0.04,WUHU216DAVISVP2,2013-11-27 03:26:00,
2013-11-26 22:27:00,29.3,25.6,29.17,North,350,7.0,18.0,86,0.00,,,0.04,WUHU216DAVISVP2,2013-11-27 03:27:00,
2013-11-26 22:28:00,29.3,25.6,29.17,North,359,7.0,18.0,86,0.00,,,0.04,WUHU216DAVISVP2,2013-11-27 03:28:00,
2013-11-26 22:29:00,29.3,25.6,29.17,North,349,6.0,18.0,86,0.00,,,0.04,WUHU216DAVISVP2,2013-11-27 03:29:00,
2013-11-26 22:31:00,29.2,25.5,29.17,ENE,60,6.0,16.0,86,0.00,,,0.04,WUHU216DAVISVP2,2013-11-27 03:31:00,
2013-11-26 22:32:00,29.2,25.5,29.17,NNE,15,6.0,16.0,86,0.00,,,0.04,WUHU216DAVISVP2,2013-11-27 03:32:00,
2013-11-26 22:33:00,29.2,25.5,29.17,NNW,346,6.0,14.0,86,0.00,,,0.04,WUHU216DAVISVP2,2013-11-27 03:33:00,
2013-11-26 22:34:00,29.1,25.4,29.17,North,359,10.0,14.0,86,0.00,,,0.04,WUHU216DAVISVP2,2013-11-27 03:34:00,
2013-11-26 22:36:00,29.1,25.7,29.17,North,4,7.0,14.0,87,0.00,,,0.04,WUHU216DAVISVP2,2013-11-27 03:36:00,
2013-11-26 22:37:00,29.1,25.7,29.17,North,359,5.0,14.0,87,0.00,,,0.04,WUHU216DAVISVP2,2013-11-27 03:37:00,
2013-11-26 22:39:00,29.1,25.7,29.17,North,354,8.0,14.0,87,0.00,,,0.04,WUHU216DAVISVP2,2013-11-27 03:39:00,
2013-11-26 22:40:00,29.1,25.7,29.17,North,359,9.0,13.0,87,0.00,,,0.04,WUHU216DAVISVP2,2013-11-27 03:40:00,
2013-11-26 22:41:00,29.0,25.6,29.17,NNE,17,9.0,12.0,87,0.00,,,0.04,WUHU216DAVISVP2,2013-11-27 03:41:00,
2013-11-26 22:42:00,29.0,25.3,29.17,North,349,10.0,12.0,86,0.00,,,0.04,WUHU216DAVISVP2,2013-11-27 03:42:00,
2013-11-26 22:45:00,29.0,25.3,29.17,North,359,7.0,12.0,86,0.00,,,0.04,WUHU216DAVISVP2,2013-11-27 03:45:00,
2013-11-26 22:46:00,29.0,25.3,29.17,North,354,10.0,12.0,86,0.00,,,0.04,WUHU216DAVISVP2,2013-11-27 03:46:00,
2013-11-26 22:47:00,29.0,25.3,29.17,North,354,8.0,12.0,86,0.00,,,0.04,WUHU216DAVISVP2,2013-11-27 03:47:00,
2013-11-26 22:50:00,29.0,25.3,29.17,North,349,6.0,12.0,86,0.00,,,0.04,WUHU216DAVISVP2,2013-11-27 03:50:00,
2013-11-26 22:51:00,29.0,25.3,29.17,North,359,10.0,12.0,86,0.00,,,0.04,WUHU216DAVISVP2,2013-11-27 03:51:00,
2013-11-26 22:52:00,28.9,25.2,29.17,North,359,7.0,12.0,86,0.00,,,0.04,WUHU216DAVISVP2,2013-11-27 03:52:00,
2013-11-26 22:55:00,28.9,25.2,29.17,NNW,328,5.0,12.0,86,0.00,,,0.04,WUHU216DAVISVP2,2013-11-27 03:55:00,
2013-11-26 22:56:00,28.9,25.2,29.17,NNW,328,5.0,12.0,86,0.00,,,0.04,WUHU216DAVISVP2,2013-11-27 03:56:00,
2013-11-26 22:57:00,28.8,25.4,29.17,NNW,340,6.0,12.0,87,0.00,,,0.04,WUHU216DAVISVP2,2013-11-27 03:57:00,
2013-11-26 23:01:00,28.8,25.4,29.17,NNW,339,5.0,11.0,87,0.00,,,0.04,WUHU216DAVISVP2,2013-11-27 04:01:00,
2013-11-26 23:03:00,28.7,25.3,29.17,NNW,332,4.0,10.0,87,0.00,,,0.04,WUHU216DAVISVP2,2013-11-27 04:03:00,
2013-11-26 23:06:00,28.7,25.3,29.17,NNW,343,5.0,10.0,87,0.00,,,0.04,WUHU216DAVISVP2,2013-11-27 04:06:00,
2013-11-26 23:07:00,28.6,25.2,29.17,NNW,345,4.0,10.0,87,0.00,,,0.04,WUHU216DAVISVP2,2013-11-27 04:07:00,
2013-11-26 23:08:00,28.6,25.2,29.17,North,354,5.0,10.0,87,0.00,,,0.04,WUHU216DAVISVP2,2013-11-27 04:08:00,
2013-11-26 23:11:00,28.6,25.2,29.18,North,354,6.0,9.0,87,0.00,,,0.04,WUHU216DAVISVP2,2013-11-27 04:11:00,
2013-11-26 23:12:00,28.6,25.2,29.18,NNW,335,4.0,9.0,87,0.00,,,0.04,WUHU216DAVISVP2,2013-11-27 04:12:00,
2013-11-26 23:13:00,28.6,25.2,29.18,NNW,341,6.0,9.0,87,0.00,,,0.04,WUHU216DAVISVP2,2013-11-27 04:13:00,
2013-11-26 23:16:00,28.6,25.2,29.17,North,354,4.0,8.0,87,0.00,,,0.04,WUHU216DAVISVP2,2013-11-27 04:16:00,
2013-11-26 23:17:00,28.6,25.2,29.17,North,354,7.0,8.0,87,0.00,,,0.04,WUHU216DAVISVP2,2013-11-27 04:17:00,
2013-11-26 23:18:00,28.6,25.2,29.18,NNW,343,7.0,8.0,87,0.00,,,0.04,WUHU216DAVISVP2,2013-11-27 04:18:00,
2013-11-26 23:21:00,28.7,25.3,29.18,NNW,334,2.0,8.0,87,0.00,,,0.04,WUHU216DAVISVP2,2013-11-27 04:21:00,
2013-11-26 23:22:00,28.7,25.3,29.18,NNW,335,1.0,8.0,87,0.00,,,0.04,WUHU216DAVISVP2,2013-11-27 04:22:00,
2013-11-26 23:23:00,28.7,25.3,29.17,NNW,336,4.0,8.0,87,0.00,,,0.04,WUHU216DAVISVP2,2013-11-27 04:23:00,
2013-11-26 23:27:00,28.8,25.4,29.17,North,350,2.0,8.0,87,0.00,,,0.04,WUHU216DAVISVP2,2013-11-27 04:27:00,
2013-11-26 23:28:00,28.8,25.4,29.17,North,354,3.0,8.0,87,0.00,,,0.04,WUHU216DAVISVP2,2013-11-27 04:28:00,
2013-11-26 23:32:00,28.8,25.7,29.17,NW,320,5.0,8.0,88,0.00,,,0.04,WUHU216DAVISVP2,2013-11-27 04:32:00,
2013-11-26 23:33:00,28.8,25.7,29.17,NW,322,4.0,8.0,88,0.00,,,0.04,WUHU216DAVISVP2,2013-11-27 04:33:00,
2013-11-26 23:37:00,28.8,25.7,29.18,NW,324,6.0,8.0,88,0.00,,,0.04,WUHU216DAVISVP2,2013-11-27 04:37:00,
2013-11-26 23:38:00,28.8,25.7,29.18,NNW,334,6.0,8.0,88,0.00,,,0.04,WUHU216DAVISVP2,2013-11-27 04:38:00,
2013-11-26 23:42:00,28.9,25.8,29.18,NNW,337,2.0,8.0,88,0.00,,,0.04,WUHU216DAVISVP2,2013-11-27 04:42:00,
2013-11-26 23:43:00,28.9,25.8,29.18,NNW,328,6.0,9.0,88,0.00,,,0.04,WUHU216DAVISVP2,2013-11-27 04:43:00,
2013-11-26 23:44:00,28.9,25.8,29.18,NNW,330,5.0,9.0,88,0.00,,,0.04,WUHU216DAVISVP2,2013-11-27 04:44:00,
2013-11-26 23:47:00,28.9,25.8,29.18,NNW,348,4.0,9.0,88,0.00,,,0.04,WUHU216DAVISVP2,2013-11-27 04:47:00,
2013-11-26 23:48:00,28.9,25.8,29.18,NNW,344,4.0,9.0,88,0.00,,,0.04,WUHU216DAVISVP2,2013-11-27 04:48:00,
2013-11-26 23:49:00,28.9,25.8,29.18,NW,306,5.0,9.0,88,0.00,,,0.04,WUHU216DAVISVP2,2013-11-27 04:49:00,
2013-11-26 23:50:00,28.9,25.8,29.18,NW,323,5.0,9.0,88,0.00,,,0.04,WUHU216DAVISVP2,2013-11-27 04:50:00,
2013-11-26 23:52:00,28.8,25.7,29.18,NNW,345,4.0,9.0,88,0.00,,,0.04,WUHU216DAVISVP2,2013-11-27 04:52:00,
2013-11-26 23:53:00,28.8,25.7,29.18,NNW,344,4.0,9.0,88,0.00,,,0.04,WUHU216DAVISVP2,2013-11-27 04:53:00,
2013-11-26 23:54:00,28.8,25.7,29.18,NNW,344,4.0,9.0,88,0.00,,,0.04,WUHU216DAVISVP2,2013-11-27 04:54:00,
2013-11-26 23:55:00,28.8,25.7,29.18,NNW,345,4.0,9.0,88,0.00,,,0.04,WUHU216DAVISVP2,2013-11-27 04:55:00,
2013-11-26 23:57:00,28.7,25.6,29.18,NNW,345,6.0,9.0,88,0.00,,,0.04,WUHU216DAVISVP2,2013-11-27 04:57:00,
2013-11-26 23:59:00,28.8,25.7,29.18,NNW,345,4.0,9.0,88,0.00,,,0.04,WUHU216DAVISVP2,2013-11-27 04:59:00,